Wetterdaten: Montag, 30.01.2017
Datum Zeit Temp. Aussen Temp. o. S. +5cm Feuchte Auss BlattFeu 1 Luftdruck Regen Sonnenschein Regendauer Solar Windben Empfang
30.01.2017 00:00 2,6 C 2,8 C 1,1 C 91 % 0 lf 1015,7 hPa 0,0 l/m 0 min 0 min 5 W/m 8,4 km/h (2 Bft) 95,74 %
30.01.2017 00:02 2,6 C 2,8 C 1,1 C 91 % 0 lf 1015,8 hPa 0,0 l/m 0 min 0 min 5 W/m 6,3 km/h (2 Bft) 5,00 %
30.01.2017 00:06 2,6 C 2,8 C 1,1 C 91 % 0 lf 1015,9 hPa 0,0 l/m 0 min 0 min 5 W/m 10,5 km/h (2 Bft) 93,98 %
30.01.2017 00:08 2,6 C 3,3 C 1,1 C 91 % 0 lf 1015,7 hPa 0,0 l/m 0 min 0 min 5 W/m 12,6 km/h (3 Bft) 95,74 %
30.01.2017 00:10 2,6 C 3,3 C 1,1 C 91 % 0 lf 1015,7 hPa 0,0 l/m 0 min 0 min 5 W/m 12,6 km/h (3 Bft) 95,74 %
30.01.2017 00:12 2,6 C 3,3 C 1,1 C 91 % 0 lf 1015,8 hPa 0,0 l/m 0 min 0 min 5 W/m 14,6 km/h (3 Bft) 97,87 %
30.01.2017 00:14 2,7 C 3,3 C 1,1 C 91 % 0 lf 1015,7 hPa 0,0 l/m 0 min 0 min 5 W/m 12,6 km/h (3 Bft) 93,62 %
30.01.2017 00:16 2,7 C 3,3 C 1,1 C 91 % 0 lf 1015,7 hPa 0,0 l/m 0 min 0 min 5 W/m 12,6 km/h (3 Bft) 97,87 %
30.01.2017 00:18 2,7 C 3,3 C 1,1 C 91 % 0 lf 1015,7 hPa 0,0 l/m 0 min 0 min 5 W/m 10,5 km/h (2 Bft) 100,00 %
30.01.2017 00:20 2,7 C 3,3 C 1,1 C 91 % 0 lf 1015,7 hPa 0,0 l/m 0 min 0 min 5 W/m 12,6 km/h (3 Bft) 97,87 %
30.01.2017 00:22 2,7 C 3,3 C 1,1 C 91 % 0 lf 1015,7 hPa 0,0 l/m 0 min 0 min 5 W/m 10,5 km/h (2 Bft) 97,87 %
30.01.2017 00:24 2,7 C 3,3 C 1,1 C 91 % 0 lf 1015,7 hPa 0,0 l/m 0 min 0 min 5 W/m 8,4 km/h (2 Bft) 100,00 %
30.01.2017 00:26 2,7 C 3,3 C 1,1 C 91 % 0 lf 1015,7 hPa 0,0 l/m 0 min 2 min 5 W/m 10,5 km/h (2 Bft) 100,00 %
30.01.2017 00:28 2,7 C 3,3 C 1,1 C 91 % 1 lf 1015,7 hPa 0,0 l/m 0 min 0 min 5 W/m 10,5 km/h (2 Bft) 91,49 %
30.01.2017 00:30 2,7 C 2,8 C 1,1 C 91 % 0 lf 1015,8 hPa 0,0 l/m 0 min 0 min 5 W/m 8,4 km/h (2 Bft) 97,83 %
30.01.2017 00:32 2,7 C 3,3 C 1,1 C 91 % 0 lf 1015,6 hPa 0,0 l/m 0 min 0 min 5 W/m 8,4 km/h (2 Bft) 97,14 %
30.01.2017 00:34 2,7 C 2,8 C 1,1 C 91 % 0 lf 1015,6 hPa 0,0 l/m 0 min 2 min 5 W/m 8,4 km/h (2 Bft) 100,00 %
30.01.2017 00:36 2,7 C 2,8 C 1,1 C 91 % 0 lf 1015,6 hPa 0,0 l/m 0 min 2 min 5 W/m 10,5 km/h (2 Bft) 98,11 %
30.01.2017 00:38 2,7 C 2,8 C 1,1 C 91 % 0 lf 1015,6 hPa 0,0 l/m 0 min 2 min 5 W/m 8,4 km/h (2 Bft) 93,62 %
30.01.2017 00:40 2,7 C 2,8 C 1,1 C 91 % 2 lf 1015,5 hPa 0,0 l/m 0 min 2 min 5 W/m 6,3 km/h (2 Bft) 100,00 %
30.01.2017 00:42 2,7 C 2,8 C 1,1 C 91 % 1 lf 1015,5 hPa 0,0 l/m 0 min 2 min 5 W/m 10,5 km/h (2 Bft) 100,00 %
30.01.2017 00:44 2,7 C 2,8 C 1,1 C 91 % 1 lf 1015,5 hPa 0,0 l/m 0 min 2 min 5 W/m 10,5 km/h (2 Bft) 97,87 %
30.01.2017 00:46 2,7 C 2,8 C 1,1 C 91 % 1 lf 1015,5 hPa 0,0 l/m 0 min 2 min 5 W/m 8,4 km/h (2 Bft) 97,87 %
30.01.2017 00:48 2,7 C 2,8 C 1,1 C 91 % 1 lf 1015,5 hPa 0,0 l/m 0 min 2 min 5 W/m 10,5 km/h (2 Bft) 100,00 %
30.01.2017 00:50 2,7 C 2,2 C 1,1 C 91 % 4 lf 1015,4 hPa 0,0 l/m 0 min 2 min 5 W/m 8,4 km/h (2 Bft) 97,87 %
30.01.2017 00:52 2,7 C 2,2 C 0,6 C 91 % 8 lf 1015,4 hPa 0,0 l/m 0 min 2 min 5 W/m 10,5 km/h (2 Bft) 95,74 %
30.01.2017 00:54 2,7 C 2,2 C 0,6 C 91 % 11 lf 1015,3 hPa 0,0 l/m 0 min 2 min 5 W/m 10,5 km/h (2 Bft) 97,87 %
30.01.2017 00:56 2,7 C 2,2 C 0,6 C 91 % 13 lf 1015,3 hPa 0,0 l/m 0 min 2 min 5 W/m 10,5 km/h (2 Bft) 100,00 %
30.01.2017 00:58 2,7 C 2,2 C 0,6 C 91 % 13 lf 1015,3 hPa 0,0 l/m 0 min 2 min 5 W/m 10,5 km/h (2 Bft) 97,87 %
30.01.2017 01:00 2,7 C 2,2 C 0,6 C 91 % 13 lf 1015,2 hPa 0,0 l/m 0 min 2 min 5 W/m 8,4 km/h (2 Bft) 100,00 %
30.01.2017 01:02 2,7 C 2,2 C 0,6 C 92 % 13 lf 1015,1 hPa 0,0 l/m 0 min 2 min 5 W/m 10,5 km/h (2 Bft) 97,92 %
30.01.2017 01:04 2,7 C 2,2 C 0,6 C 92 % 12 lf 1015,1 hPa 0,2 l/m 0 min 2 min 5 W/m 8,4 km/h (2 Bft) 97,87 %
30.01.2017 01:06 2,8 C 2,2 C 0,6 C 92 % 13 lf 1015,0 hPa 0,0 l/m 0 min 2 min 5 W/m 6,3 km/h (2 Bft) 97,87 %
30.01.2017 01:08 2,7 C 2,2 C 0,6 C 92 % 13 lf 1014,9 hPa 0,0 l/m 0 min 2 min 5 W/m 10,5 km/h (2 Bft) 97,87 %
30.01.2017 01:10 2,7 C 2,2 C 0,6 C 92 % 13 lf 1014,9 hPa 0,0 l/m 0 min 2 min 5 W/m 12,6 km/h (3 Bft) 97,87 %
30.01.2017 01:12 2,7 C 2,2 C 1,1 C 92 % 14 lf 1014,9 hPa 0,0 l/m 0 min 2 min 5 W/m 10,5 km/h (2 Bft) 95,65 %
30.01.2017 01:14 2,7 C 2,2 C 0,6 C 92 % 15 lf 1014,9 hPa 0,0 l/m 0 min 2 min 5 W/m 8,4 km/h (2 Bft) 97,87 %
30.01.2017 01:16 2,7 C 2,2 C 1,1 C 92 % 15 lf 1014,9 hPa 0,2 l/m 0 min 2 min 5 W/m 6,3 km/h (2 Bft) 97,87 %
30.01.2017 01:18 2,7 C 2,2 C 1,1 C 92 % 15 lf 1014,9 hPa 0,0 l/m 0 min 2 min 5 W/m 8,4 km/h (2 Bft) 97,87 %
30.01.2017 01:20 2,7 C 2,2 C 1,1 C 92 % 15 lf 1014,8 hPa 0,0 l/m 0 min 2 min 5 W/m 6,3 km/h (2 Bft) 97,87 %
30.01.2017 01:22 2,7 C 2,2 C 1,1 C 92 % 15 lf 1014,9 hPa 0,0 l/m 0 min 2 min 5 W/m 12,6 km/h (3 Bft) 95,65 %
30.01.2017 01:24 2,7 C 2,8 C 1,1 C 92 % 15 lf 1014,8 hPa 0,0 l/m 0 min 2 min 5 W/m 10,5 km/h (2 Bft) 97,87 %
30.01.2017 01:26 2,7 C 2,8 C 1,1 C 92 % 15 lf 1014,9 hPa 0,0 l/m 0 min 2 min 5 W/m 8,4 km/h (2 Bft) 97,87 %
30.01.2017 01:28 2,8 C 2,8 C 1,1 C 92 % 15 lf 1014,9 hPa 0,0 l/m 0 min 2 min 5 W/m 10,5 km/h (2 Bft) 97,87 %
30.01.2017 01:30 2,8 C 2,8 C 1,1 C 93 % 15 lf 1014,8 hPa 0,2 l/m 0 min 2 min 5 W/m 10,5 km/h (2 Bft) 93,62 %
30.01.2017 01:32 2,8 C 2,8 C 1,1 C 93 % 15 lf 1014,9 hPa 0,0 l/m 0 min 2 min 5 W/m 10,5 km/h (2 Bft) 95,83 %
30.01.2017 01:34 2,8 C 2,8 C 1,1 C 93 % 15 lf 1014,9 hPa 0,0 l/m 0 min 2 min 5 W/m 6,3 km/h (2 Bft) 97,83 %
30.01.2017 01:36 2,8 C 2,8 C 1,1 C 93 % 15 lf 1014,8 hPa 0,0 l/m 0 min 2 min 5 W/m 10,5 km/h (2 Bft) 98,00 %
30.01.2017 01:38 2,8 C 2,8 C 1,1 C 93 % 15 lf 1014,8 hPa 0,2 l/m 0 min 2 min 5 W/m 10,5 km/h (2 Bft) 95,74 %
30.01.2017 01:40 2,8 C 2,8 C 1,1 C 93 % 15 lf 1014,7 hPa 0,0 l/m 0 min 2 min 5 W/m 8,4 km/h (2 Bft) 95,74 %
30.01.2017 01:42 2,8 C 2,8 C 1,1 C 93 % 15 lf 1014,7 hPa 0,0 l/m 0 min 2 min 5 W/m 12,6 km/h (3 Bft) 95,74 %
30.01.2017 01:44 2,9 C 2,8 C 1,1 C 93 % 15 lf 1014,7 hPa 0,0 l/m 0 min 2 min 5 W/m 8,4 km/h (2 Bft) 91,30 %
30.01.2017 01:46 2,9 C 2,8 C 1,1 C 93 % 15 lf 1014,6 hPa 0,2 l/m 0 min 2 min 5 W/m 8,4 km/h (2 Bft) 93,62 %
30.01.2017 01:48 2,9 C 2,8 C 1,1 C 93 % 15 lf 1014,6 hPa 0,0 l/m 0 min 2 min 5 W/m 14,6 km/h (3 Bft) 95,74 %
30.01.2017 01:50 2,9 C 2,8 C 1,1 C 94 % 15 lf 1014,5 hPa 0,0 l/m 0 min 2 min 5 W/m 10,5 km/h (2 Bft) 97,87 %
30.01.2017 01:52 2,9 C 2,8 C 1,1 C 94 % 15 lf 1014,5 hPa 0,0 l/m 0 min 2 min 5 W/m 10,5 km/h (2 Bft) 97,87 %
30.01.2017 01:54 2,9 C 2,8 C 1,1 C 94 % 15 lf 1014,4 hPa 0,2 l/m 0 min 2 min 5 W/m 16,7 km/h (3 Bft) 93,62 %
30.01.2017 01:56 2,9 C 2,8 C 1,1 C 94 % 15 lf 1014,4 hPa 0,0 l/m 0 min 2 min 5 W/m 12,6 km/h (3 Bft) 97,83 %
30.01.2017 01:58 2,9 C 2,8 C 1,1 C 94 % 15 lf 1014,4 hPa 0,0 l/m 0 min 2 min 5 W/m 10,5 km/h (2 Bft) 95,74 %
30.01.2017 02:00 3,0 C 2,8 C 1,1 C 94 % 15 lf 1014,3 hPa 0,0 l/m 0 min 2 min 5 W/m 10,5 km/h (2 Bft) 97,87 %
30.01.2017 02:02 3,0 C 2,8 C 1,1 C 94 % 15 lf 1014,3 hPa 0,0 l/m 0 min 2 min 5 W/m 10,5 km/h (2 Bft) 95,74 %
30.01.2017 02:04 3,1 C 2,8 C 1,1 C 94 % 15 lf 1014,2 hPa 0,0 l/m 0 min 2 min 5 W/m 14,6 km/h (3 Bft) 93,62 %
30.01.2017 02:06 3,1 C 2,8 C 1,1 C 94 % 15 lf 1014,2 hPa 0,0 l/m 0 min 2 min 5 W/m 14,6 km/h (3 Bft) 91,43 %
30.01.2017 02:08 3,1 C 2,8 C 1,1 C 94 % 15 lf 1014,2 hPa 0,2 l/m 0 min 2 min 5 W/m 14,6 km/h (3 Bft) 93,62 %
30.01.2017 02:10 3,1 C 2,8 C 1,1 C 94 % 15 lf 1014,0 hPa 0,0 l/m 0 min 2 min 5 W/m 12,6 km/h (3 Bft) 93,62 %
30.01.2017 02:12 3,1 C 2,8 C 1,1 C 94 % 15 lf 1014,0 hPa 0,0 l/m 0 min 2 min 5 W/m 14,6 km/h (3 Bft) 97,87 %
30.01.2017 02:14 3,1 C 2,8 C 1,7 C 94 % 15 lf 1014,0 hPa 0,0 l/m 0 min 2 min 5 W/m 18,8 km/h (3 Bft) 95,74 %
30.01.2017 02:16 3,1 C 2,8 C 1,1 C 94 % 15 lf 1014,0 hPa 0,0 l/m 0 min 2 min 5 W/m 16,7 km/h (3 Bft) 93,62 %
30.01.2017 02:18 3,1 C 2,8 C 1,7 C 94 % 15 lf 1013,9 hPa 0,0 l/m 0 min 2 min 5 W/m 16,7 km/h (3 Bft) 95,65 %
30.01.2017 02:20 3,1 C 3,3 C 1,7 C 94 % 15 lf 1013,9 hPa 0,0 l/m 0 min 2 min 5 W/m 16,7 km/h (3 Bft) 95,74 %
30.01.2017 02:22 3,1 C 3,3 C 1,7 C 94 % 15 lf 1013,8 hPa 0,0 l/m 0 min 2 min 5 W/m 12,6 km/h (3 Bft) 93,62 %
30.01.2017 02:24 3,1 C 3,3 C 1,7 C 94 % 15 lf 1013,7 hPa 0,2 l/m 0 min 2 min 5 W/m 14,6 km/h (3 Bft) 93,62 %
30.01.2017 02:26 3,1 C 3,3 C 1,7 C 95 % 15 lf 1013,7 hPa 0,0 l/m 0 min 2 min 5 W/m 16,7 km/h (3 Bft) 93,62 %
30.01.2017 02:28 3,2 C 3,3 C 1,7 C 95 % 15 lf 1013,6 hPa 0,0 l/m 0 min 2 min 5 W/m 14,6 km/h (3 Bft) 91,49 %
30.01.2017 02:30 3,2 C 3,3 C 1,7 C 95 % 15 lf 1013,6 hPa 0,0 l/m 0 min 2 min 5 W/m 16,7 km/h (3 Bft) 93,48 %
30.01.2017 02:32 3,2 C 3,3 C 1,7 C 95 % 15 lf 1013,5 hPa 0,0 l/m 0 min 2 min 5 W/m 16,7 km/h (3 Bft) 91,49 %
30.01.2017 02:34 3,2 C 3,3 C 1,7 C 95 % 15 lf 1013,5 hPa 0,0 l/m 0 min 2 min 5 W/m 14,6 km/h (3 Bft) 93,62 %
30.01.2017 02:36 3,2 C 3,3 C 1,7 C 95 % 15 lf 1013,4 hPa 0,0 l/m 0 min 2 min 5 W/m 20,9 km/h (4 Bft) 94,92 %
30.01.2017 02:38 3,2 C 3,3 C 1,7 C 95 % 15 lf 1013,4 hPa 0,0 l/m 0 min 2 min 5 W/m 14,6 km/h (3 Bft) 95,65 %
30.01.2017 02:40 3,2 C 3,3 C 1,7 C 95 % 15 lf 1013,4 hPa 0,0 l/m 0 min 2 min 5 W/m 20,9 km/h (4 Bft) 93,62 %
30.01.2017 02:42 3,2 C 3,3 C 1,7 C 95 % 15 lf 1013,4 hPa 0,2 l/m 0 min 2 min 5 W/m 14,6 km/h (3 Bft) 95,74 %
30.01.2017 02:44 3,2 C 3,3 C 1,7 C 95 % 15 lf 1013,2 hPa 0,0 l/m 0 min 2 min 5 W/m 14,6 km/h (3 Bft) 95,74 %
30.01.2017 02:46 3,3 C 3,3 C 1,7 C 95 % 15 lf 1013,1 hPa 0,0 l/m 0 min 2 min 5 W/m 12,6 km/h (3 Bft) 93,62 %
30.01.2017 02:48 3,3 C 3,3 C 1,7 C 95 % 15 lf 1013,1 hPa 0,0 l/m 0 min 2 min 5 W/m 20,9 km/h (4 Bft) 93,62 %
30.01.2017 02:50 3,3 C 3,3 C 1,7 C 95 % 15 lf 1013,0 hPa 0,0 l/m 0 min 2 min 5 W/m 18,8 km/h (3 Bft) 91,30 %
30.01.2017 02:52 3,3 C 3,3 C 1,7 C 95 % 15 lf 1013,0 hPa 0,0 l/m 0 min 2 min 5 W/m 23,0 km/h (4 Bft) 89,36 %
30.01.2017 02:54 3,3 C 3,3 C 1,7 C 95 % 15 lf 1013,0 hPa 0,0 l/m 0 min 2 min 5 W/m 18,8 km/h (3 Bft) 97,87 %
30.01.2017 02:56 3,3 C 3,3 C 1,7 C 95 % 15 lf 1013,0 hPa 0,0 l/m 0 min 2 min 5 W/m 12,6 km/h (3 Bft) 93,62 %
30.01.2017 02:58 3,4 C 3,3 C 1,7 C 95 % 15 lf 1012,9 hPa 0,0 l/m 0 min 2 min 5 W/m 16,7 km/h (3 Bft) 95,74 %
30.01.2017 03:00 3,4 C 3,3 C 1,7 C 95 % 15 lf 1012,9 hPa 0,0 l/m 0 min 2 min 5 W/m 12,6 km/h (3 Bft) 93,62 %
30.01.2017 03:02 3,4 C 3,3 C 1,7 C 95 % 15 lf 1012,7 hPa 0,0 l/m 0 min 2 min 5 W/m 16,7 km/h (3 Bft) 89,13 %
30.01.2017 03:04 3,4 C 3,3 C 1,7 C 95 % 15 lf 1012,6 hPa 0,0 l/m 0 min 2 min 5 W/m 10,5 km/h (2 Bft) 91,49 %
30.01.2017 03:06 3,4 C 3,3 C 1,7 C 96 % 15 lf 1012,6 hPa 0,0 l/m 0 min 0 min 5 W/m 12,6 km/h (3 Bft) 100,00 %
30.01.2017 03:08 3,3 C 3,3 C 1,7 C 96 % 15 lf 1012,5 hPa 0,0 l/m 0 min 0 min 5 W/m 18,8 km/h (3 Bft) 93,62 %
30.01.2017 03:10 3,3 C 3,3 C 1,7 C 96 % 15 lf 1012,4 hPa 0,0 l/m 0 min 0 min 5 W/m 25,1 km/h (4 Bft) 97,87 %
30.01.2017 03:12 3,3 C 3,3 C 1,7 C 96 % 15 lf 1012,3 hPa 0,0 l/m 0 min 0 min 5 W/m 18,8 km/h (3 Bft) 95,74 %
30.01.2017 03:14 3,3 C 3,3 C 1,7 C 96 % 15 lf 1012,2 hPa 0,0 l/m 0 min 0 min 5 W/m 10,5 km/h (2 Bft) 93,62 %
30.01.2017 03:16 3,3 C 3,3 C 1,7 C 96 % 15 lf 1012,2 hPa 0,0 l/m 0 min 0 min 5 W/m 27,2 km/h (4 Bft) 93,48 %
30.01.2017 03:18 3,3 C 3,3 C 1,7 C 96 % 15 lf 1012,2 hPa 0,0 l/m 0 min 0 min 5 W/m 23,0 km/h (4 Bft) 89,36 %
30.01.2017 03:20 3,3 C 3,3 C 1,7 C 96 % 15 lf 1012,2 hPa 0,0 l/m 0 min 0 min 5 W/m 27,2 km/h (4 Bft) 95,74 %
30.01.2017 03:22 3,4 C 3,3 C 1,7 C 96 % 15 lf 1012,1 hPa 0,0 l/m 0 min 0 min 5 W/m 27,2 km/h (4 Bft) 97,87 %
30.01.2017 03:24 3,4 C 3,3 C 1,7 C 96 % 15 lf 1012,0 hPa 0,0 l/m 0 min 0 min 5 W/m 27,2 km/h (4 Bft) 97,87 %
30.01.2017 03:26 3,4 C 3,3 C 1,7 C 96 % 15 lf 1011,9 hPa 0,0 l/m 0 min 0 min 5 W/m 23,0 km/h (4 Bft) 97,87 %
30.01.2017 03:28 3,4 C 3,3 C 1,7 C 96 % 15 lf 1011,9 hPa 0,0 l/m 0 min 0 min 5 W/m 23,0 km/h (4 Bft) 97,87 %
30.01.2017 03:30 3,4 C 3,3 C 1,7 C 96 % 15 lf 1011,8 hPa 0,0 l/m 0 min 0 min 5 W/m 18,8 km/h (3 Bft) 93,48 %
30.01.2017 03:32 3,4 C 3,3 C 1,7 C 96 % 15 lf 1011,8 hPa 0,0 l/m 0 min 0 min 5 W/m 23,0 km/h (4 Bft) 94,34 %
30.01.2017 03:34 3,4 C 3,3 C 1,7 C 96 % 15 lf 1011,7 hPa 0,0 l/m 0 min 2 min 5 W/m 20,9 km/h (4 Bft) 95,74 %
30.01.2017 03:36 3,4 C 3,3 C 1,7 C 96 % 15 lf 1011,7 hPa 0,0 l/m 0 min 2 min 5 W/m 20,9 km/h (4 Bft) 94,00 %
30.01.2017 03:38 3,4 C 3,3 C 1,7 C 96 % 15 lf 1011,7 hPa 0,0 l/m 0 min 2 min 5 W/m 23,0 km/h (4 Bft) 95,74 %
30.01.2017 03:40 3,4 C 3,3 C 1,7 C 96 % 15 lf 1011,8 hPa 0,0 l/m 0 min 2 min 5 W/m 20,9 km/h (4 Bft) 93,62 %
30.01.2017 03:42 3,4 C 3,3 C 1,7 C 96 % 15 lf 1011,7 hPa 0,0 l/m 0 min 2 min 5 W/m 25,1 km/h (4 Bft) 93,48 %
30.01.2017 03:44 3,4 C 3,3 C 1,7 C 96 % 15 lf 1011,6 hPa 0,0 l/m 0 min 2 min 5 W/m 27,2 km/h (4 Bft) 93,62 %
30.01.2017 03:46 3,4 C 3,3 C 2,2 C 96 % 15 lf 1011,7 hPa 0,0 l/m 0 min 2 min 5 W/m 27,2 km/h (4 Bft) 95,74 %
30.01.2017 03:48 3,4 C 3,3 C 2,2 C 96 % 15 lf 1011,6 hPa 0,0 l/m 0 min 2 min 5 W/m 23,0 km/h (4 Bft) 95,74 %
30.01.2017 03:50 3,4 C 3,3 C 2,2 C 96 % 15 lf 1011,6 hPa 0,0 l/m 0 min 2 min 5 W/m 18,8 km/h (3 Bft) 95,74 %
30.01.2017 03:52 3,5 C 3,3 C 2,2 C 96 % 15 lf 1011,7 hPa 0,0 l/m 0 min 2 min 5 W/m 18,8 km/h (3 Bft) 85,11 %
30.01.2017 03:54 3,5 C 3,3 C 2,2 C 96 % 15 lf 1011,7 hPa 0,0 l/m 0 min 2 min 5 W/m 16,7 km/h (3 Bft) 91,30 %
30.01.2017 03:56 3,5 C 3,3 C 2,2 C 96 % 15 lf 1011,6 hPa 0,0 l/m 0 min 2 min 5 W/m 18,8 km/h (3 Bft) 93,62 %
30.01.2017 03:58 3,5 C 3,3 C 2,2 C 96 % 15 lf 1011,6 hPa 0,0 l/m 0 min 2 min 5 W/m 16,7 km/h (3 Bft) 95,74 %
30.01.2017 04:00 3,5 C 3,3 C 2,2 C 96 % 15 lf 1011,5 hPa 0,0 l/m 0 min 2 min 5 W/m 27,2 km/h (4 Bft) 95,74 %
30.01.2017 04:02 3,5 C 3,3 C 2,2 C 96 % 15 lf 1011,5 hPa 0,0 l/m 0 min 2 min 5 W/m 18,8 km/h (3 Bft) 100,00 %
30.01.2017 04:04 3,5 C 3,3 C 2,2 C 96 % 15 lf 1011,4 hPa 0,2 l/m 0 min 2 min 5 W/m 23,0 km/h (4 Bft) 100,00 %
30.01.2017 04:06 3,5 C 3,3 C 2,2 C 96 % 15 lf 1011,4 hPa 0,0 l/m 0 min 2 min 5 W/m 18,8 km/h (3 Bft) 95,74 %
30.01.2017 04:08 3,5 C 3,3 C 2,2 C 96 % 15 lf 1011,3 hPa 0,0 l/m 0 min 2 min 5 W/m 16,7 km/h (3 Bft) 95,74 %
30.01.2017 04:10 3,5 C 3,3 C 2,2 C 96 % 15 lf 1011,4 hPa 0,0 l/m 0 min 2 min 5 W/m 14,6 km/h (3 Bft) 97,87 %
30.01.2017 04:12 3,5 C 3,3 C 2,2 C 97 % 15 lf 1011,4 hPa 0,0 l/m 0 min 0 min 5 W/m 23,0 km/h (4 Bft) 97,83 %
30.01.2017 04:14 3,5 C 3,3 C 2,2 C 97 % 15 lf 1011,4 hPa 0,0 l/m 0 min 0 min 5 W/m 16,7 km/h (3 Bft) 95,74 %
30.01.2017 04:16 3,6 C 3,3 C 2,2 C 97 % 15 lf 1011,4 hPa 0,0 l/m 0 min 0 min 5 W/m 25,1 km/h (4 Bft) 95,74 %
30.01.2017 04:18 3,5 C 3,3 C 2,2 C 96 % 15 lf 1011,3 hPa 0,0 l/m 0 min 0 min 5 W/m 18,8 km/h (3 Bft) 97,87 %
30.01.2017 04:20 3,6 C 3,3 C 2,2 C 96 % 15 lf 1011,3 hPa 0,0 l/m 0 min 0 min 5 W/m 20,9 km/h (4 Bft) 97,87 %
30.01.2017 04:22 3,5 C 3,3 C 2,2 C 97 % 15 lf 1011,2 hPa 0,0 l/m 0 min 0 min 5 W/m 16,7 km/h (3 Bft) 100,00 %
30.01.2017 04:24 3,6 C 3,3 C 2,2 C 96 % 15 lf 1011,1 hPa 0,0 l/m 0 min 2 min 5 W/m 23,0 km/h (4 Bft) 97,87 %
30.01.2017 04:26 3,6 C 3,3 C 2,2 C 96 % 15 lf 1011,1 hPa 0,0 l/m 0 min 2 min 5 W/m 18,8 km/h (3 Bft) 100,00 %
30.01.2017 04:28 3,6 C 3,3 C 2,2 C 96 % 15 lf 1011,0 hPa 0,0 l/m 0 min 2 min 5 W/m 18,8 km/h (3 Bft) 100,00 %
30.01.2017 04:30 3,6 C 3,3 C 2,2 C 97 % 15 lf 1010,9 hPa 0,0 l/m 0 min 2 min 5 W/m 25,1 km/h (4 Bft) 100,00 %
30.01.2017 04:32 3,6 C 3,3 C 2,2 C 97 % 15 lf 1010,9 hPa 0,0 l/m 0 min 2 min 5 W/m 23,0 km/h (4 Bft) 100,00 %
30.01.2017 04:34 3,6 C 3,3 C 2,2 C 97 % 15 lf 1010,9 hPa 0,0 l/m 0 min 2 min 5 W/m 20,9 km/h (4 Bft) 100,00 %
30.01.2017 04:36 3,6 C 3,3 C 2,2 C 97 % 15 lf 1010,8 hPa 0,0 l/m 0 min 2 min 5 W/m 14,6 km/h (3 Bft) 100,00 %
30.01.2017 04:38 3,6 C 3,9 C 2,2 C 97 % 15 lf 1010,9 hPa 0,0 l/m 0 min 2 min 5 W/m 16,7 km/h (3 Bft) 100,00 %
30.01.2017 04:40 3,6 C 3,9 C 2,2 C 97 % 15 lf 1010,8 hPa 0,0 l/m 0 min 2 min 5 W/m 20,9 km/h (4 Bft) 95,74 %
30.01.2017 04:42 3,6 C 3,3 C 2,2 C 97 % 15 lf 1010,8 hPa 0,0 l/m 0 min 2 min 5 W/m 16,7 km/h (3 Bft) 95,74 %
30.01.2017 04:44 3,6 C 3,3 C 2,2 C 97 % 15 lf 1010,9 hPa 0,0 l/m 0 min 2 min 5 W/m 20,9 km/h (4 Bft) 100,00 %
30.01.2017 04:46 3,6 C 3,3 C 2,2 C 97 % 15 lf 1010,8 hPa 0,0 l/m 0 min 2 min 5 W/m 20,9 km/h (4 Bft) 97,87 %
30.01.2017 04:48 3,6 C 3,9 C 2,2 C 97 % 15 lf 1010,8 hPa 0,0 l/m 0 min 2 min 5 W/m 20,9 km/h (4 Bft) 100,00 %
30.01.2017 04:50 3,6 C 3,9 C 2,2 C 97 % 15 lf 1010,8 hPa 0,0 l/m 0 min 2 min 5 W/m 16,7 km/h (3 Bft) 100,00 %
30.01.2017 04:52 3,6 C 3,9 C 2,2 C 97 % 15 lf 1010,8 hPa 0,0 l/m 0 min 2 min 5 W/m 20,9 km/h (4 Bft) 100,00 %
30.01.2017 04:54 3,6 C 3,3 C 2,2 C 97 % 15 lf 1010,8 hPa 0,0 l/m 0 min 2 min 5 W/m 23,0 km/h (4 Bft) 97,87 %
30.01.2017 04:56 3,6 C 3,9 C 2,2 C 97 % 15 lf 1010,7 hPa 0,0 l/m 0 min 2 min 5 W/m 18,8 km/h (3 Bft) 100,00 %
30.01.2017 04:58 3,6 C 3,9 C 2,2 C 97 % 15 lf 1010,7 hPa 0,0 l/m 0 min 2 min 5 W/m 20,9 km/h (4 Bft) 93,62 %
30.01.2017 05:00 3,6 C 3,9 C 2,2 C 97 % 15 lf 1010,7 hPa 0,2 l/m 0 min 2 min 5 W/m 20,9 km/h (4 Bft) 100,00 %
30.01.2017 05:02 3,6 C 3,9 C 2,2 C 97 % 15 lf 1010,6 hPa 0,2 l/m 0 min 2 min 5 W/m 14,6 km/h (3 Bft) 97,83 %
30.01.2017 05:04 3,6 C 3,9 C 2,2 C 97 % 15 lf 1010,6 hPa 0,2 l/m 0 min 2 min 5 W/m 20,9 km/h (4 Bft) 95,74 %
30.01.2017 05:06 3,6 C 3,9 C 2,2 C 97 % 15 lf 1010,6 hPa 0,0 l/m 0 min 2 min 5 W/m 20,9 km/h (4 Bft) 95,74 %
30.01.2017 05:08 3,6 C 3,9 C 2,2 C 97 % 15 lf 1010,5 hPa 0,0 l/m 0 min 2 min 5 W/m 14,6 km/h (3 Bft) 97,87 %
30.01.2017 05:10 3,6 C 3,9 C 2,2 C 97 % 15 lf 1010,5 hPa 0,2 l/m 0 min 2 min 5 W/m 20,9 km/h (4 Bft) 93,62 %
30.01.2017 05:12 3,6 C 3,9 C 2,2 C 97 % 15 lf 1010,4 hPa 0,0 l/m 0 min 2 min 5 W/m 16,7 km/h (3 Bft) 97,87 %
30.01.2017 05:14 3,7 C 3,9 C 2,2 C 97 % 15 lf 1010,4 hPa 0,0 l/m 0 min 2 min 5 W/m 18,8 km/h (3 Bft) 97,83 %
30.01.2017 05:16 3,6 C 3,9 C 2,2 C 97 % 15 lf 1010,5 hPa 0,0 l/m 0 min 2 min 5 W/m 18,8 km/h (3 Bft) 95,74 %
30.01.2017 05:18 3,7 C 3,9 C 2,2 C 97 % 15 lf 1010,3 hPa 0,0 l/m 0 min 2 min 5 W/m 16,7 km/h (3 Bft) 95,74 %
30.01.2017 05:20 3,7 C 3,9 C 2,2 C 97 % 15 lf 1010,4 hPa 0,0 l/m 0 min 2 min 5 W/m 14,6 km/h (3 Bft) 95,74 %
30.01.2017 05:22 3,7 C 3,9 C 2,2 C 97 % 15 lf 1010,3 hPa 0,2 l/m 0 min 2 min 5 W/m 20,9 km/h (4 Bft) 97,87 %
30.01.2017 05:24 3,7 C 3,9 C 2,2 C 97 % 15 lf 1010,3 hPa 0,0 l/m 0 min 2 min 5 W/m 20,9 km/h (4 Bft) 95,65 %
30.01.2017 05:26 3,7 C 3,9 C 2,2 C 97 % 15 lf 1010,3 hPa 0,0 l/m 0 min 2 min 5 W/m 14,6 km/h (3 Bft) 95,74 %
30.01.2017 05:28 3,7 C 3,9 C 2,2 C 97 % 15 lf 1010,3 hPa 0,0 l/m 0 min 2 min 5 W/m 16,7 km/h (3 Bft) 95,74 %
30.01.2017 05:30 3,7 C 3,9 C 2,2 C 97 % 15 lf 1010,2 hPa 0,2 l/m 0 min 2 min 5 W/m 16,7 km/h (3 Bft) 93,62 %
30.01.2017 05:32 3,7 C 3,9 C 2,2 C 97 % 15 lf 1010,2 hPa 0,0 l/m 0 min 2 min 5 W/m 12,6 km/h (3 Bft) 96,23 %
30.01.2017 05:34 3,7 C 3,9 C 2,2 C 97 % 15 lf 1010,2 hPa 0,0 l/m 0 min 2 min 5 W/m 18,8 km/h (3 Bft) 93,62 %
30.01.2017 05:36 3,7 C 3,9 C 2,2 C 97 % 15 lf 1010,2 hPa 0,0 l/m 0 min 2 min 5 W/m 12,6 km/h (3 Bft) 92,00 %
30.01.2017 05:38 3,7 C 3,9 C 2,2 C 97 % 15 lf 1010,2 hPa 0,0 l/m 0 min 2 min 5 W/m 16,7 km/h (3 Bft) 95,65 %
30.01.2017 05:40 3,7 C 3,9 C 2,2 C 97 % 15 lf 1010,0 hPa 0,2 l/m 0 min 2 min 5 W/m 14,6 km/h (3 Bft) 93,62 %
30.01.2017 05:42 3,7 C 3,9 C 2,2 C 97 % 15 lf 1010,0 hPa 0,0 l/m 0 min 2 min 5 W/m 12,6 km/h (3 Bft) 93,62 %
30.01.2017 05:44 3,7 C 3,9 C 2,2 C 97 % 15 lf 1010,0 hPa 0,2 l/m 0 min 2 min 5 W/m 14,6 km/h (3 Bft) 95,74 %
30.01.2017 05:46 3,7 C 3,9 C 2,2 C 97 % 15 lf 1010,0 hPa 0,0 l/m 0 min 2 min 5 W/m 16,7 km/h (3 Bft) 95,74 %
30.01.2017 05:48 3,7 C 3,9 C 2,2 C 97 % 15 lf 1010,1 hPa 0,0 l/m 0 min 2 min 5 W/m 16,7 km/h (3 Bft) 91,49 %
30.01.2017 05:50 3,7 C 3,9 C 2,2 C 97 % 15 lf 1010,0 hPa 0,0 l/m 0 min 2 min 5 W/m 14,6 km/h (3 Bft) 93,48 %
30.01.2017 05:52 3,7 C 3,9 C 2,2 C 97 % 15 lf 1010,0 hPa 0,0 l/m 0 min 2 min 5 W/m 16,7 km/h (3 Bft) 97,87 %
30.01.2017 05:54 3,7 C 3,9 C 2,2 C 97 % 15 lf 1010,0 hPa 0,0 l/m 0 min 2 min 5 W/m 14,6 km/h (3 Bft) 100,00 %
30.01.2017 05:56 3,7 C 3,9 C 2,2 C 97 % 15 lf 1009,9 hPa 0,0 l/m 0 min 2 min 5 W/m 16,7 km/h (3 Bft) 97,87 %
30.01.2017 05:58 3,7 C 3,9 C 2,2 C 97 % 15 lf 1009,9 hPa 0,0 l/m 0 min 2 min 5 W/m 14,6 km/h (3 Bft) 97,87 %
30.01.2017 06:00 3,7 C 3,9 C 2,2 C 97 % 15 lf 1009,8 hPa 0,2 l/m 0 min 2 min 5 W/m 12,6 km/h (3 Bft) 100,00 %
30.01.2017 06:02 3,7 C 3,9 C 2,2 C 97 % 15 lf 1009,8 hPa 0,2 l/m 0 min 2 min 5 W/m 12,6 km/h (3 Bft) 100,00 %
30.01.2017 06:04 3,7 C 3,9 C 2,2 C 97 % 15 lf 1009,8 hPa 0,0 l/m 0 min 2 min 5 W/m 14,6 km/h (3 Bft) 100,00 %
30.01.2017 06:06 3,7 C 3,9 C 2,2 C 97 % 15 lf 1009,8 hPa 0,0 l/m 0 min 2 min 5 W/m 18,8 km/h (3 Bft) 95,74 %
30.01.2017 06:08 3,7 C 3,9 C 2,2 C 97 % 15 lf 1009,7 hPa 0,0 l/m 0 min 2 min 5 W/m 18,8 km/h (3 Bft) 95,74 %
30.01.2017 06:10 3,7 C 3,9 C 2,2 C 97 % 15 lf 1009,6 hPa 0,0 l/m 0 min 2 min 5 W/m 16,7 km/h (3 Bft) 95,74 %
30.01.2017 06:12 3,7 C 3,9 C 2,2 C 97 % 15 lf 1009,6 hPa 0,0 l/m 0 min 2 min 5 W/m 16,7 km/h (3 Bft) 97,83 %
30.01.2017 06:14 3,7 C 3,9 C 2,2 C 97 % 15 lf 1009,5 hPa 0,0 l/m 0 min 2 min 5 W/m 16,7 km/h (3 Bft) 97,87 %
30.01.2017 06:16 3,7 C 3,9 C 2,2 C 97 % 15 lf 1009,5 hPa 0,0 l/m 0 min 2 min 5 W/m 16,7 km/h (3 Bft) 97,87 %
30.01.2017 06:18 3,7 C 3,9 C 2,2 C 97 % 15 lf 1009,5 hPa 0,2 l/m 0 min 2 min 5 W/m 16,7 km/h (3 Bft) 97,87 %
30.01.2017 06:20 3,7 C 3,9 C 2,2 C 97 % 15 lf 1009,5 hPa 0,0 l/m 0 min 2 min 5 W/m 14,6 km/h (3 Bft) 95,74 %
30.01.2017 06:22 3,7 C 3,9 C 2,2 C 97 % 15 lf 1009,5 hPa 0,0 l/m 0 min 2 min 5 W/m 16,7 km/h (3 Bft) 95,74 %
30.01.2017 06:24 3,7 C 3,9 C 2,2 C 97 % 15 lf 1009,5 hPa 0,0 l/m 0 min 2 min 5 W/m 14,6 km/h (3 Bft) 97,83 %
30.01.2017 06:26 3,7 C 3,9 C 2,2 C 97 % 15 lf 1009,4 hPa 0,0 l/m 0 min 2 min 5 W/m 18,8 km/h (3 Bft) 95,74 %
30.01.2017 06:28 3,7 C 3,9 C 2,2 C 97 % 15 lf 1009,3 hPa 0,0 l/m 0 min 2 min 5 W/m 18,8 km/h (3 Bft) 93,62 %
30.01.2017 06:30 3,7 C 3,9 C 2,2 C 97 % 15 lf 1009,3 hPa 0,0 l/m 0 min 2 min 5 W/m 18,8 km/h (3 Bft) 93,62 %
30.01.2017 06:32 3,7 C 3,9 C 2,2 C 97 % 15 lf 1009,2 hPa 0,2 l/m 0 min 2 min 5 W/m 20,9 km/h (4 Bft) 91,49 %
30.01.2017 06:34 3,7 C 3,9 C 2,2 C 97 % 15 lf 1009,2 hPa 0,0 l/m 0 min 2 min 5 W/m 14,6 km/h (3 Bft) 95,74 %
30.01.2017 06:36 3,7 C 3,9 C 2,2 C 97 % 15 lf 1009,2 hPa 0,0 l/m 0 min 2 min 5 W/m 20,9 km/h (4 Bft) 97,14 %
30.01.2017 06:38 3,7 C 3,9 C 2,2 C 97 % 15 lf 1009,2 hPa 0,0 l/m 0 min 2 min 5 W/m 20,9 km/h (4 Bft) 93,62 %
30.01.2017 06:40 3,7 C 3,9 C 2,2 C 97 % 15 lf 1009,2 hPa 0,0 l/m 0 min 2 min 5 W/m 23,0 km/h (4 Bft) 95,74 %
30.01.2017 06:42 3,7 C 3,9 C 2,2 C 97 % 15 lf 1009,2 hPa 0,0 l/m 0 min 2 min 5 W/m 23,0 km/h (4 Bft) 93,62 %
30.01.2017 06:44 3,7 C 3,9 C 2,2 C 98 % 15 lf 1009,2 hPa 0,0 l/m 0 min 2 min 5 W/m 16,7 km/h (3 Bft) 93,62 %
30.01.2017 06:46 3,7 C 3,9 C 2,2 C 98 % 15 lf 1009,1 hPa 0,0 l/m 0 min 2 min 5 W/m 18,8 km/h (3 Bft) 95,65 %
30.01.2017 06:48 3,7 C 3,9 C 2,2 C 98 % 15 lf 1009,1 hPa 0,0 l/m 0 min 2 min 5 W/m 14,6 km/h (3 Bft) 91,49 %
30.01.2017 06:50 3,7 C 3,9 C 2,2 C 98 % 15 lf 1009,1 hPa 0,0 l/m 0 min 2 min 5 W/m 16,7 km/h (3 Bft) 89,36 %
30.01.2017 06:52 3,7 C 3,9 C 2,2 C 98 % 15 lf 1009,1 hPa 0,0 l/m 0 min 2 min 5 W/m 16,7 km/h (3 Bft) 95,74 %
30.01.2017 06:54 3,7 C 3,9 C 2,2 C 98 % 15 lf 1009,1 hPa 0,0 l/m 0 min 0 min 5 W/m 23,0 km/h (4 Bft) 95,74 %
30.01.2017 06:56 3,7 C 3,9 C 2,2 C 98 % 15 lf 1009,0 hPa 0,2 l/m 0 min 0 min 5 W/m 14,6 km/h (3 Bft) 91,49 %
30.01.2017 06:58 3,7 C 3,9 C 2,2 C 98 % 15 lf 1009,1 hPa 0,0 l/m 0 min 2 min 5 W/m 16,7 km/h (3 Bft) 93,48 %
30.01.2017 07:00 3,7 C 3,9 C 2,2 C 98 % 15 lf 1009,0 hPa 0,0 l/m 0 min 2 min 5 W/m 14,6 km/h (3 Bft) 97,87 %
30.01.2017 07:02 3,7 C 3,9 C 2,2 C 98 % 15 lf 1009,0 hPa 0,0 l/m 0 min 2 min 5 W/m 10,5 km/h (2 Bft) 95,74 %
30.01.2017 07:04 3,7 C 3,9 C 2,2 C 98 % 15 lf 1009,0 hPa 0,0 l/m 0 min 2 min 5 W/m 16,7 km/h (3 Bft) 95,74 %
30.01.2017 07:06 3,7 C 3,9 C 2,2 C 98 % 15 lf 1009,0 hPa 0,2 l/m 0 min 2 min 5 W/m 16,7 km/h (3 Bft) 98,28 %
30.01.2017 07:08 3,7 C 3,9 C 2,2 C 98 % 15 lf 1008,9 hPa 0,0 l/m 0 min 2 min 5 W/m 16,7 km/h (3 Bft) 97,87 %
30.01.2017 07:10 3,8 C 3,9 C 2,2 C 98 % 15 lf 1009,0 hPa 0,0 l/m 0 min 2 min 5 W/m 14,6 km/h (3 Bft) 97,87 %
30.01.2017 07:12 3,8 C 3,9 C 2,2 C 98 % 15 lf 1009,0 hPa 0,0 l/m 0 min 2 min 5 W/m 14,6 km/h (3 Bft) 93,62 %
30.01.2017 07:14 3,8 C 3,9 C 2,2 C 98 % 15 lf 1009,1 hPa 0,0 l/m 0 min 2 min 5 W/m 10,5 km/h (2 Bft) 95,74 %
30.01.2017 07:16 3,8 C 3,9 C 2,8 C 98 % 15 lf 1009,0 hPa 0,2 l/m 0 min 2 min 5 W/m 16,7 km/h (3 Bft) 93,62 %
30.01.2017 07:18 3,8 C 3,9 C 2,2 C 98 % 15 lf 1009,0 hPa 0,0 l/m 0 min 2 min 5 W/m 14,6 km/h (3 Bft) 93,48 %
30.01.2017 07:20 3,8 C 3,9 C 2,8 C 98 % 15 lf 1009,0 hPa 0,0 l/m 0 min 2 min 5 W/m 14,6 km/h (3 Bft) 91,49 %
30.01.2017 07:22 3,8 C 3,9 C 2,2 C 98 % 15 lf 1009,0 hPa 0,2 l/m 0 min 2 min 5 W/m 8,4 km/h (2 Bft) 93,62 %
30.01.2017 07:24 3,8 C 3,9 C 2,2 C 98 % 15 lf 1009,0 hPa 0,0 l/m 0 min 2 min 5 W/m 10,5 km/h (2 Bft) 93,62 %
30.01.2017 07:26 3,8 C 3,9 C 2,8 C 98 % 15 lf 1009,0 hPa 0,0 l/m 0 min 2 min 5 W/m 12,6 km/h (3 Bft) 93,62 %
30.01.2017 07:28 3,8 C 3,9 C 2,8 C 98 % 15 lf 1009,0 hPa 0,0 l/m 0 min 2 min 5 W/m 8,4 km/h (2 Bft) 95,74 %
30.01.2017 07:30 3,9 C 3,9 C 2,8 C 98 % 15 lf 1009,0 hPa 0,0 l/m 0 min 2 min 5 W/m 10,5 km/h (2 Bft) 91,30 %
30.01.2017 07:32 3,9 C 3,9 C 2,8 C 98 % 15 lf 1009,0 hPa 0,0 l/m 0 min 2 min 5 W/m 14,6 km/h (3 Bft) 93,62 %
30.01.2017 07:34 3,9 C 3,9 C 2,8 C 98 % 15 lf 1009,0 hPa 0,2 l/m 0 min 2 min 5 W/m 10,5 km/h (2 Bft) 93,62 %
30.01.2017 07:36 3,9 C 3,9 C 2,8 C 98 % 15 lf 1009,0 hPa 0,0 l/m 0 min 2 min 5 W/m 8,4 km/h (2 Bft) 97,14 %
30.01.2017 07:38 3,9 C 3,9 C 2,8 C 98 % 15 lf 1009,0 hPa 0,0 l/m 0 min 2 min 5 W/m 10,5 km/h (2 Bft) 93,62 %
30.01.2017 07:40 3,9 C 3,9 C 2,8 C 98 % 15 lf 1009,0 hPa 0,2 l/m 0 min 2 min 5 W/m 12,6 km/h (3 Bft) 97,87 %
30.01.2017 07:42 3,9 C 3,9 C 2,8 C 98 % 15 lf 1009,0 hPa 0,0 l/m 0 min 2 min 5 W/m 10,5 km/h (2 Bft) 97,87 %
30.01.2017 07:44 3,9 C 3,9 C 2,2 C 98 % 15 lf 1009,0 hPa 0,0 l/m 0 min 2 min 5 W/m 14,6 km/h (3 Bft) 95,65 %
30.01.2017 07:46 3,9 C 3,9 C 2,2 C 98 % 15 lf 1009,0 hPa 0,0 l/m 0 min 2 min 5 W/m 8,4 km/h (2 Bft) 97,87 %
30.01.2017 07:48 3,9 C 3,9 C 2,2 C 98 % 15 lf 1009,0 hPa 0,0 l/m 0 min 2 min 5 W/m 12,6 km/h (3 Bft) 100,00 %
30.01.2017 07:50 3,9 C 3,9 C 2,8 C 98 % 15 lf 1009,0 hPa 0,0 l/m 0 min 2 min 5 W/m 12,6 km/h (3 Bft) 100,00 %
30.01.2017 07:52 3,9 C 3,9 C 2,8 C 98 % 15 lf 1009,0 hPa 0,0 l/m 0 min 2 min 5 W/m 12,6 km/h (3 Bft) 100,00 %
30.01.2017 07:54 3,9 C 3,9 C 2,8 C 98 % 15 lf 1009,0 hPa 0,0 l/m 0 min 2 min 5 W/m 14,6 km/h (3 Bft) 95,74 %
30.01.2017 07:56 3,9 C 3,9 C 2,8 C 98 % 15 lf 1009,0 hPa 0,0 l/m 0 min 2 min 5 W/m 10,5 km/h (2 Bft) 100,00 %
30.01.2017 07:58 3,9 C 3,9 C 2,8 C 98 % 15 lf 1009,0 hPa 0,0 l/m 0 min 2 min 5 W/m 12,6 km/h (3 Bft) 95,74 %
30.01.2017 08:00 3,9 C 3,9 C 2,8 C 98 % 15 lf 1009,0 hPa 0,0 l/m 0 min 2 min 5 W/m 12,6 km/h (3 Bft) 97,87 %
30.01.2017 08:02 3,9 C 3,9 C 2,8 C 98 % 15 lf 1009,0 hPa 0,0 l/m 0 min 2 min 5 W/m 12,6 km/h (3 Bft) 95,74 %
30.01.2017 08:04 3,9 C 3,9 C 2,8 C 98 % 15 lf 1009,1 hPa 0,2 l/m 0 min 2 min 5 W/m 8,4 km/h (2 Bft) 93,62 %
30.01.2017 08:06 3,9 C 3,9 C 2,8 C 98 % 15 lf 1009,1 hPa 0,0 l/m 0 min 0 min 5 W/m 12,6 km/h (3 Bft) 98,28 %
30.01.2017 08:08 3,9 C 3,9 C 2,8 C 98 % 15 lf 1009,0 hPa 0,0 l/m 0 min 0 min 5 W/m 10,5 km/h (2 Bft) 95,74 %
30.01.2017 08:10 3,9 C 3,9 C 2,8 C 98 % 15 lf 1009,1 hPa 0,0 l/m 0 min 0 min 5 W/m 10,5 km/h (2 Bft) 95,74 %
30.01.2017 08:12 3,9 C 3,9 C 2,8 C 98 % 15 lf 1009,0 hPa 0,0 l/m 0 min 0 min 5 W/m 10,5 km/h (2 Bft) 97,87 %
30.01.2017 08:14 3,9 C 3,9 C 2,8 C 98 % 15 lf 1009,0 hPa 0,0 l/m 0 min 0 min 5 W/m 10,5 km/h (2 Bft) 97,87 %
30.01.2017 08:16 3,9 C 3,9 C 2,8 C 98 % 15 lf 1009,0 hPa 0,0 l/m 0 min 0 min 5 W/m 10,5 km/h (2 Bft) 95,65 %
30.01.2017 08:18 3,9 C 3,9 C 2,8 C 98 % 15 lf 1009,0 hPa 0,0 l/m 0 min 2 min 5 W/m 8,4 km/h (2 Bft) 97,87 %
30.01.2017 08:20 3,9 C 3,9 C 2,8 C 98 % 15 lf 1009,0 hPa 0,0 l/m 0 min 2 min 5 W/m 10,5 km/h (2 Bft) 97,87 %
30.01.2017 08:22 3,9 C 4,4 C 2,8 C 98 % 15 lf 1009,0 hPa 0,0 l/m 0 min 2 min 5 W/m 10,5 km/h (2 Bft) 97,87 %
30.01.2017 08:24 3,9 C 4,4 C 2,8 C 98 % 15 lf 1009,0 hPa 0,0 l/m 0 min 0 min 5 W/m 8,4 km/h (2 Bft) 95,74 %
30.01.2017 08:26 4,0 C 4,4 C 2,8 C 98 % 15 lf 1009,0 hPa 0,0 l/m 0 min 2 min 5 W/m 6,3 km/h (2 Bft) 95,74 %
30.01.2017 08:28 4,0 C 4,4 C 2,8 C 98 % 15 lf 1009,0 hPa 0,0 l/m 0 min 2 min 6 W/m 8,4 km/h (2 Bft) 93,48 %
30.01.2017 08:30 4,0 C 4,4 C 2,8 C 98 % 15 lf 1009,0 hPa 0,0 l/m 0 min 2 min 7 W/m 8,4 km/h (2 Bft) 97,87 %
30.01.2017 08:32 4,0 C 4,4 C 2,8 C 98 % 15 lf 1009,0 hPa 0,0 l/m 0 min 2 min 7 W/m 10,5 km/h (2 Bft) 97,14 %
30.01.2017 08:34 4,0 C 4,4 C 2,8 C 98 % 15 lf 1009,0 hPa 0,0 l/m 0 min 2 min 7 W/m 8,4 km/h (2 Bft) 95,74 %
30.01.2017 08:36 4,1 C 4,4 C 2,8 C 98 % 15 lf 1009,0 hPa 0,0 l/m 0 min 2 min 9 W/m 8,4 km/h (2 Bft) 98,11 %
30.01.2017 08:38 4,1 C 4,4 C 2,8 C 98 % 15 lf 1009,0 hPa 0,0 l/m 0 min 0 min 9 W/m 8,4 km/h (2 Bft) 97,87 %
30.01.2017 08:40 4,1 C 4,4 C 2,8 C 98 % 15 lf 1009,0 hPa 0,0 l/m 0 min 0 min 9 W/m 6,3 km/h (2 Bft) 97,87 %
30.01.2017 08:42 4,1 C 4,4 C 2,8 C 98 % 15 lf 1009,0 hPa 0,2 l/m 0 min 0 min 9 W/m 10,5 km/h (2 Bft) 95,74 %
30.01.2017 08:44 4,1 C 4,4 C 2,8 C 98 % 15 lf 1009,0 hPa 0,0 l/m 0 min 0 min 9 W/m 6,3 km/h (2 Bft) 97,87 %
30.01.2017 08:46 4,1 C 4,4 C 2,8 C 98 % 15 lf 1009,0 hPa 0,0 l/m 0 min 0 min 9 W/m 8,4 km/h (2 Bft) 93,48 %
30.01.2017 08:48 4,1 C 4,4 C 2,8 C 98 % 15 lf 1009,0 hPa 0,0 l/m 0 min 0 min 9 W/m 6,3 km/h (2 Bft) 97,87 %
30.01.2017 08:50 4,2 C 4,4 C 2,8 C 98 % 15 lf 1009,0 hPa 0,0 l/m 0 min 0 min 9 W/m 6,3 km/h (2 Bft) 97,87 %
30.01.2017 08:52 4,2 C 4,4 C 2,8 C 98 % 15 lf 1009,0 hPa 0,0 l/m 0 min 0 min 9 W/m 8,4 km/h (2 Bft) 97,87 %
30.01.2017 08:54 4,2 C 4,4 C 2,8 C 98 % 15 lf 1008,9 hPa 0,0 l/m 0 min 0 min 9 W/m 6,3 km/h (2 Bft) 95,74 %
30.01.2017 08:56 4,2 C 4,4 C 2,8 C 98 % 15 lf 1008,9 hPa 0,0 l/m 0 min 0 min 9 W/m 6,3 km/h (2 Bft) 91,49 %
30.01.2017 08:58 4,2 C 4,4 C 2,8 C 98 % 15 lf 1008,9 hPa 0,0 l/m 0 min 0 min 9 W/m 6,3 km/h (2 Bft) 95,65 %
30.01.2017 09:00 4,2 C 4,4 C 2,8 C 98 % 15 lf 1008,8 hPa 0,0 l/m 0 min 0 min 7 W/m 8,4 km/h (2 Bft) 93,62 %
30.01.2017 09:02 4,2 C 4,4 C 2,8 C 98 % 15 lf 1008,9 hPa 0,0 l/m 0 min 2 min 9 W/m 8,4 km/h (2 Bft) 97,87 %
30.01.2017 09:04 4,2 C 4,4 C 2,8 C 98 % 15 lf 1008,9 hPa 0,0 l/m 0 min 0 min 9 W/m 8,4 km/h (2 Bft) 95,74 %
30.01.2017 09:06 4,2 C 4,4 C 2,8 C 98 % 15 lf 1008,8 hPa 0,0 l/m 0 min 0 min 9 W/m 6,3 km/h (2 Bft) 94,00 %
30.01.2017 09:08 4,3 C 4,4 C 3,3 C 98 % 15 lf 1008,8 hPa 0,0 l/m 0 min 0 min 9 W/m 8,4 km/h (2 Bft) 95,65 %
30.01.2017 09:10 4,3 C 4,4 C 2,8 C 98 % 15 lf 1008,7 hPa 0,0 l/m 0 min 0 min 9 W/m 6,3 km/h (2 Bft) 93,62 %
30.01.2017 09:12 4,3 C 4,4 C 2,8 C 98 % 15 lf 1008,8 hPa 0,0 l/m 0 min 0 min 9 W/m 18,8 km/h (3 Bft) 95,74 %
30.01.2017 09:14 4,3 C 5,0 C 3,3 C 98 % 15 lf 1008,8 hPa 0,0 l/m 0 min 0 min 9 W/m 18,8 km/h (3 Bft) 93,62 %
30.01.2017 09:16 4,4 C 5,0 C 3,3 C 98 % 15 lf 1008,7 hPa 0,0 l/m 0 min 0 min 11 W/m 16,7 km/h (3 Bft) 91,49 %
30.01.2017 09:18 4,4 C 5,6 C 3,3 C 98 % 15 lf 1008,8 hPa 0,0 l/m 0 min 0 min 12 W/m 12,6 km/h (3 Bft) 95,74 %
30.01.2017 09:20 4,5 C 5,6 C 3,9 C 98 % 15 lf 1008,6 hPa 0,0 l/m 0 min 0 min 13 W/m 14,6 km/h (3 Bft) 95,65 %
30.01.2017 09:22 4,6 C 5,6 C 3,9 C 98 % 15 lf 1008,7 hPa 0,0 l/m 0 min 0 min 16 W/m 12,6 km/h (3 Bft) 95,74 %
30.01.2017 09:24 4,7 C 5,6 C 3,9 C 98 % 15 lf 1008,7 hPa 0,0 l/m 0 min 2 min 20 W/m 16,7 km/h (3 Bft) 95,74 %
30.01.2017 09:26 4,9 C 5,6 C 3,9 C 98 % 15 lf 1008,6 hPa 0,0 l/m 0 min 0 min 20 W/m 16,7 km/h (3 Bft) 93,62 %
30.01.2017 09:28 5,0 C 6,1 C 3,9 C 98 % 15 lf 1008,6 hPa 0,0 l/m 0 min 0 min 21 W/m 12,6 km/h (3 Bft) 93,62 %
30.01.2017 09:30 5,2 C 6,1 C 4,4 C 98 % 15 lf 1008,6 hPa 0,0 l/m 0 min 0 min 21 W/m 14,6 km/h (3 Bft) 95,74 %
30.01.2017 09:32 5,2 C 6,1 C 4,4 C 98 % 15 lf 1008,6 hPa 0,0 l/m 0 min 0 min 24 W/m 14,6 km/h (3 Bft) 95,74 %
30.01.2017 09:34 5,3 C 6,1 C 4,4 C 99 % 15 lf 1008,7 hPa 0,0 l/m 0 min 0 min 25 W/m 16,7 km/h (3 Bft) 93,62 %
30.01.2017 09:36 5,4 C 6,1 C 4,4 C 99 % 15 lf 1008,6 hPa 0,0 l/m 0 min 0 min 25 W/m 16,7 km/h (3 Bft) 97,96 %
30.01.2017 09:38 5,5 C 6,1 C 4,4 C 98 % 15 lf 1008,7 hPa 0,0 l/m 0 min 0 min 26 W/m 20,9 km/h (4 Bft) 97,83 %
30.01.2017 09:40 5,6 C 6,1 C 4,4 C 98 % 15 lf 1008,7 hPa 0,0 l/m 0 min 0 min 26 W/m 14,6 km/h (3 Bft) 100,00 %
30.01.2017 09:42 5,7 C 6,1 C 4,4 C 99 % 15 lf 1008,7 hPa 0,0 l/m 0 min 0 min 24 W/m 18,8 km/h (3 Bft) 95,74 %
30.01.2017 09:44 5,7 C 6,1 C 4,4 C 99 % 15 lf 1008,7 hPa 0,0 l/m 0 min 0 min 25 W/m 14,6 km/h (3 Bft) 100,00 %
30.01.2017 09:46 5,7 C 6,1 C 4,4 C 99 % 15 lf 1008,8 hPa 0,0 l/m 0 min 0 min 25 W/m 18,8 km/h (3 Bft) 97,87 %
30.01.2017 09:48 5,8 C 6,1 C 4,4 C 99 % 15 lf 1008,7 hPa 0,0 l/m 0 min 0 min 23 W/m 20,9 km/h (4 Bft) 100,00 %
30.01.2017 09:50 5,8 C 6,1 C 4,4 C 99 % 15 lf 1008,7 hPa 0,0 l/m 0 min 0 min 19 W/m 16,7 km/h (3 Bft) 95,65 %
30.01.2017 09:52 5,8 C 6,1 C 4,4 C 99 % 15 lf 1008,8 hPa 0,0 l/m 0 min 0 min 21 W/m 14,6 km/h (3 Bft) 97,87 %
30.01.2017 09:54 5,8 C 6,1 C 4,4 C 99 % 15 lf 1008,7 hPa 0,0 l/m 0 min 0 min 23 W/m 18,8 km/h (3 Bft) 97,87 %
30.01.2017 09:56 5,9 C 6,1 C 4,4 C 99 % 15 lf 1008,7 hPa 0,0 l/m 0 min 0 min 25 W/m 18,8 km/h (3 Bft) 100,00 %
30.01.2017 09:58 5,9 C 6,1 C 4,4 C 99 % 15 lf 1008,7 hPa 0,0 l/m 0 min 0 min 28 W/m 16,7 km/h (3 Bft) 97,87 %
30.01.2017 10:00 5,9 C 6,1 C 4,4 C 99 % 15 lf 1008,6 hPa 0,0 l/m 0 min 0 min 30 W/m 14,6 km/h (3 Bft) 100,00 %
30.01.2017 10:02 5,9 C 6,1 C 4,4 C 99 % 15 lf 1008,6 hPa 0,0 l/m 0 min 0 min 32 W/m 14,6 km/h (3 Bft) 100,00 %
30.01.2017 10:04 5,9 C 6,1 C 4,4 C 99 % 15 lf 1008,6 hPa 0,0 l/m 0 min 0 min 34 W/m 14,6 km/h (3 Bft) 97,87 %
30.01.2017 10:06 5,9 C 6,1 C 4,4 C 99 % 15 lf 1008,6 hPa 0,0 l/m 0 min 0 min 36 W/m 14,6 km/h (3 Bft) 97,14 %
30.01.2017 10:08 5,9 C 6,1 C 4,4 C 99 % 15 lf 1008,7 hPa 0,0 l/m 0 min 0 min 36 W/m 23,0 km/h (4 Bft) 100,00 %
30.01.2017 10:10 6,0 C 6,1 C 5,0 C 99 % 15 lf 1008,6 hPa 0,0 l/m 0 min 0 min 39 W/m 16,7 km/h (3 Bft) 97,87 %
30.01.2017 10:12 6,0 C 6,1 C 5,0 C 99 % 15 lf 1008,6 hPa 0,0 l/m 0 min 0 min 39 W/m 20,9 km/h (4 Bft) 95,74 %
30.01.2017 10:14 6,0 C 6,1 C 5,0 C 99 % 15 lf 1008,6 hPa 0,0 l/m 0 min 0 min 38 W/m 14,6 km/h (3 Bft) 100,00 %
30.01.2017 10:16 6,0 C 6,1 C 5,0 C 99 % 15 lf 1008,6 hPa 0,0 l/m 0 min 0 min 39 W/m 27,2 km/h (4 Bft) 95,65 %
30.01.2017 10:18 6,1 C 6,1 C 5,0 C 99 % 15 lf 1008,5 hPa 0,0 l/m 0 min 0 min 42 W/m 25,1 km/h (4 Bft) 100,00 %
30.01.2017 10:20 6,1 C 6,7 C 5,0 C 99 % 15 lf 1008,6 hPa 0,0 l/m 0 min 0 min 42 W/m 29,3 km/h (5 Bft) 100,00 %
30.01.2017 10:22 6,1 C 6,7 C 5,0 C 99 % 15 lf 1008,6 hPa 0,0 l/m 0 min 0 min 47 W/m 20,9 km/h (4 Bft) 100,00 %
30.01.2017 10:24 6,1 C 6,7 C 5,0 C 99 % 15 lf 1008,5 hPa 0,0 l/m 0 min 0 min 49 W/m 16,7 km/h (3 Bft) 95,74 %
30.01.2017 10:26 6,1 C 6,7 C 5,0 C 99 % 15 lf 1008,6 hPa 0,0 l/m 0 min 0 min 54 W/m 23,0 km/h (4 Bft) 100,00 %
30.01.2017 10:28 6,1 C 6,7 C 5,0 C 99 % 15 lf 1008,5 hPa 0,0 l/m 0 min 0 min 57 W/m 14,6 km/h (3 Bft) 95,65 %
30.01.2017 10:30 6,2 C 6,7 C 5,0 C 99 % 15 lf 1008,5 hPa 0,0 l/m 0 min 0 min 56 W/m 23,0 km/h (4 Bft) 95,74 %
30.01.2017 10:32 6,2 C 6,7 C 5,0 C 99 % 15 lf 1008,5 hPa 0,0 l/m 0 min 0 min 54 W/m 25,1 km/h (4 Bft) 97,87 %
30.01.2017 10:34 6,2 C 6,7 C 5,0 C 99 % 15 lf 1008,5 hPa 0,0 l/m 0 min 0 min 54 W/m 23,0 km/h (4 Bft) 97,87 %
30.01.2017 10:36 6,2 C 6,7 C 5,0 C 99 % 15 lf 1008,5 hPa 0,0 l/m 0 min 0 min 57 W/m 18,8 km/h (3 Bft) 98,18 %
30.01.2017 10:38 6,2 C 6,7 C 5,0 C 99 % 15 lf 1008,5 hPa 0,0 l/m 0 min 0 min 62 W/m 20,9 km/h (4 Bft) 95,74 %
30.01.2017 10:40 6,2 C 6,7 C 5,0 C 99 % 15 lf 1008,5 hPa 0,0 l/m 0 min 0 min 65 W/m 18,8 km/h (3 Bft) 95,74 %
30.01.2017 10:42 6,2 C 6,7 C 5,0 C 99 % 15 lf 1008,6 hPa 0,0 l/m 0 min 0 min 65 W/m 31,4 km/h (5 Bft) 95,65 %
30.01.2017 10:44 6,2 C 6,7 C 5,0 C 99 % 15 lf 1008,5 hPa 0,0 l/m 0 min 0 min 57 W/m 12,6 km/h (3 Bft) 95,74 %
30.01.2017 10:46 6,3 C 6,7 C 5,0 C 99 % 15 lf 1008,5 hPa 0,0 l/m 0 min 0 min 53 W/m 14,6 km/h (3 Bft) 95,74 %
30.01.2017 10:48 6,3 C 6,7 C 5,0 C 99 % 15 lf 1008,6 hPa 0,0 l/m 0 min 0 min 56 W/m 27,2 km/h (4 Bft) 95,74 %
30.01.2017 10:50 6,3 C 6,7 C 5,0 C 99 % 15 lf 1008,5 hPa 0,0 l/m 0 min 0 min 57 W/m 20,9 km/h (4 Bft) 95,74 %
30.01.2017 10:52 6,3 C 6,7 C 5,0 C 99 % 15 lf 1008,5 hPa 0,0 l/m 0 min 0 min 56 W/m 20,9 km/h (4 Bft) 95,74 %
30.01.2017 10:54 6,3 C 6,7 C 5,0 C 99 % 15 lf 1008,6 hPa 0,0 l/m 0 min 0 min 55 W/m 16,7 km/h (3 Bft) 95,65 %
30.01.2017 10:56 6,3 C 6,7 C 5,0 C 99 % 15 lf 1008,6 hPa 0,0 l/m 0 min 0 min 56 W/m 31,4 km/h (5 Bft) 91,49 %
30.01.2017 10:58 6,3 C 6,7 C 5,0 C 99 % 15 lf 1008,6 hPa 0,0 l/m 0 min 0 min 59 W/m 14,6 km/h (3 Bft) 87,23 %
30.01.2017 11:00 6,3 C 6,7 C 5,6 C 99 % 15 lf 1008,7 hPa 0,0 l/m 0 min 0 min 69 W/m 31,4 km/h (5 Bft) 93,62 %
30.01.2017 11:02 6,4 C 6,7 C 5,6 C 99 % 15 lf 1008,6 hPa 0,0 l/m 0 min 0 min 77 W/m 27,2 km/h (4 Bft) 89,58 %
30.01.2017 11:04 6,4 C 6,7 C 5,6 C 99 % 15 lf 1008,6 hPa 0,0 l/m 0 min 0 min 70 W/m 16,7 km/h (3 Bft) 91,49 %
30.01.2017 11:06 6,4 C 6,7 C 5,6 C 99 % 15 lf 1008,6 hPa 0,0 l/m 0 min 0 min 68 W/m 14,6 km/h (3 Bft) 93,88 %
30.01.2017 11:08 6,4 C 6,7 C 5,6 C 99 % 15 lf 1008,5 hPa 0,0 l/m 0 min 0 min 76 W/m 31,4 km/h (5 Bft) 93,62 %
30.01.2017 11:10 6,4 C 6,7 C 5,6 C 99 % 15 lf 1008,6 hPa 0,0 l/m 0 min 2 min 74 W/m 10,5 km/h (2 Bft) 93,62 %
30.01.2017 11:12 6,4 C 6,7 C 5,6 C 99 % 15 lf 1008,6 hPa 0,0 l/m 0 min 0 min 65 W/m 16,7 km/h (3 Bft) 93,48 %
30.01.2017 11:14 6,4 C 6,7 C 5,6 C 99 % 15 lf 1008,5 hPa 0,0 l/m 0 min 0 min 56 W/m 23,0 km/h (4 Bft) 89,36 %
30.01.2017 11:16 6,4 C 6,7 C 5,6 C 99 % 15 lf 1008,7 hPa 0,0 l/m 0 min 0 min 57 W/m 20,9 km/h (4 Bft) 93,62 %
30.01.2017 11:18 6,4 C 6,7 C 5,6 C 99 % 15 lf 1008,7 hPa 0,0 l/m 0 min 0 min 64 W/m 16,7 km/h (3 Bft) 89,36 %
30.01.2017 11:20 6,4 C 6,7 C 5,6 C 99 % 15 lf 1008,5 hPa 0,0 l/m 0 min 0 min 64 W/m 25,1 km/h (4 Bft) 91,49 %
30.01.2017 11:22 6,4 C 6,7 C 5,6 C 99 % 15 lf 1008,6 hPa 0,0 l/m 0 min 2 min 60 W/m 18,8 km/h (3 Bft) 93,48 %
30.01.2017 11:24 6,4 C 6,7 C 5,6 C 99 % 15 lf 1008,6 hPa 0,0 l/m 0 min 2 min 60 W/m 16,7 km/h (3 Bft) 91,49 %
30.01.2017 11:26 6,4 C 6,7 C 5,6 C 99 % 15 lf 1008,6 hPa 0,0 l/m 0 min 2 min 62 W/m 14,6 km/h (3 Bft) 93,62 %
30.01.2017 11:28 6,4 C 6,7 C 5,6 C 99 % 15 lf 1008,5 hPa 0,0 l/m 0 min 2 min 63 W/m 14,6 km/h (3 Bft) 93,62 %
30.01.2017 11:30 6,4 C 6,7 C 5,6 C 99 % 15 lf 1008,5 hPa 0,0 l/m 0 min 2 min 61 W/m 23,0 km/h (4 Bft) 95,74 %
30.01.2017 11:32 6,4 C 6,7 C 5,6 C 99 % 15 lf 1008,5 hPa 0,0 l/m 0 min 2 min 65 W/m 18,8 km/h (3 Bft) 89,36 %
30.01.2017 11:34 6,5 C 6,7 C 5,6 C 99 % 15 lf 1008,6 hPa 0,0 l/m 0 min 2 min 67 W/m 12,6 km/h (3 Bft) 95,65 %
30.01.2017 11:36 6,5 C 6,7 C 5,6 C 99 % 15 lf 1008,6 hPa 0,0 l/m 0 min 2 min 72 W/m 23,0 km/h (4 Bft) 94,44 %
30.01.2017 11:38 6,5 C 6,7 C 5,6 C 99 % 15 lf 1008,5 hPa 0,0 l/m 0 min 2 min 76 W/m 25,1 km/h (4 Bft) 93,62 %
30.01.2017 11:40 6,5 C 6,7 C 5,6 C 99 % 15 lf 1008,6 hPa 0,0 l/m 0 min 2 min 77 W/m 18,8 km/h (3 Bft) 91,30 %
30.01.2017 11:42 6,5 C 6,7 C 5,6 C 99 % 15 lf 1008,4 hPa 0,0 l/m 0 min 0 min 73 W/m 14,6 km/h (3 Bft) 93,62 %
30.01.2017 11:44 6,5 C 6,7 C 5,6 C 99 % 15 lf 1008,4 hPa 0,0 l/m 0 min 2 min 66 W/m 23,0 km/h (4 Bft) 97,87 %
30.01.2017 11:46 6,6 C 6,7 C 5,6 C 99 % 15 lf 1008,4 hPa 0,0 l/m 0 min 2 min 57 W/m 16,7 km/h (3 Bft) 97,87 %
30.01.2017 11:48 6,6 C 6,7 C 5,6 C 99 % 15 lf 1008,4 hPa 0,0 l/m 0 min 2 min 55 W/m 20,9 km/h (4 Bft) 93,62 %
30.01.2017 11:50 6,6 C 6,7 C 5,6 C 99 % 15 lf 1008,6 hPa 0,0 l/m 0 min 2 min 60 W/m 27,2 km/h (4 Bft) 93,48 %
30.01.2017 11:52 6,6 C 6,7 C 5,6 C 99 % 15 lf 1008,5 hPa 0,0 l/m 0 min 2 min 71 W/m 29,3 km/h (5 Bft) 97,87 %
30.01.2017 11:54 6,6 C 6,7 C 5,6 C 99 % 15 lf 1008,5 hPa 0,0 l/m 0 min 0 min 78 W/m 16,7 km/h (3 Bft) 97,87 %
30.01.2017 11:56 6,6 C 6,7 C 5,6 C 99 % 15 lf 1008,5 hPa 0,0 l/m 0 min 0 min 74 W/m 16,7 km/h (3 Bft) 95,74 %
30.01.2017 11:58 6,6 C 6,7 C 5,6 C 99 % 15 lf 1008,4 hPa 0,0 l/m 0 min 0 min 59 W/m 16,7 km/h (3 Bft) 97,87 %
30.01.2017 12:00 6,6 C 6,7 C 5,6 C 99 % 15 lf 1008,4 hPa 0,0 l/m 0 min 0 min 56 W/m 18,8 km/h (3 Bft) 97,87 %
30.01.2017 12:02 6,6 C 6,7 C 5,6 C 99 % 15 lf 1008,4 hPa 0,2 l/m 0 min 0 min 60 W/m 20,9 km/h (4 Bft) 97,83 %
30.01.2017 12:04 6,6 C 6,7 C 5,6 C 99 % 15 lf 1008,4 hPa 0,0 l/m 0 min 0 min 52 W/m 23,0 km/h (4 Bft) 97,87 %
30.01.2017 12:06 6,6 C 6,7 C 5,6 C 99 % 15 lf 1008,4 hPa 0,0 l/m 0 min 0 min 53 W/m 14,6 km/h (3 Bft) 98,18 %
30.01.2017 12:08 6,6 C 6,7 C 5,6 C 99 % 15 lf 1008,5 hPa 0,0 l/m 0 min 0 min 59 W/m 20,9 km/h (4 Bft) 97,87 %
30.01.2017 12:10 6,6 C 7,2 C 5,6 C 99 % 15 lf 1008,4 hPa 0,0 l/m 0 min 0 min 57 W/m 12,6 km/h (3 Bft) 97,87 %
30.01.2017 12:12 6,7 C 6,7 C 5,6 C 99 % 15 lf 1008,4 hPa 0,0 l/m 0 min 0 min 62 W/m 16,7 km/h (3 Bft) 95,74 %
30.01.2017 12:14 6,7 C 6,7 C 5,6 C 99 % 15 lf 1008,3 hPa 0,0 l/m 0 min 0 min 64 W/m 20,9 km/h (4 Bft) 95,74 %
30.01.2017 12:16 6,7 C 6,7 C 5,6 C 99 % 15 lf 1008,3 hPa 0,0 l/m 0 min 0 min 62 W/m 25,1 km/h (4 Bft) 93,48 %
30.01.2017 12:18 6,7 C 6,7 C 5,6 C 99 % 15 lf 1008,3 hPa 0,0 l/m 0 min 0 min 53 W/m 16,7 km/h (3 Bft) 93,62 %
30.01.2017 12:20 6,7 C 6,7 C 5,6 C 99 % 15 lf 1008,3 hPa 0,0 l/m 0 min 0 min 50 W/m 14,6 km/h (3 Bft) 100,00 %
30.01.2017 12:22 6,7 C 6,7 C 5,6 C 99 % 15 lf 1008,3 hPa 0,0 l/m 0 min 0 min 52 W/m 16,7 km/h (3 Bft) 100,00 %
30.01.2017 12:24 6,7 C 6,7 C 5,6 C 99 % 15 lf 1008,4 hPa 0,0 l/m 0 min 0 min 50 W/m 23,0 km/h (4 Bft) 97,87 %
30.01.2017 12:26 6,7 C 6,7 C 5,6 C 99 % 15 lf 1008,3 hPa 0,0 l/m 0 min 0 min 51 W/m 18,8 km/h (3 Bft) 97,87 %
30.01.2017 12:28 6,7 C 6,7 C 5,6 C 99 % 15 lf 1008,3 hPa 0,0 l/m 0 min 0 min 55 W/m 23,0 km/h (4 Bft) 100,00 %
30.01.2017 12:30 6,7 C 6,7 C 5,6 C 99 % 15 lf 1008,3 hPa 0,0 l/m 0 min 2 min 57 W/m 25,1 km/h (4 Bft) 95,74 %
30.01.2017 12:32 6,7 C 6,7 C 5,6 C 99 % 15 lf 1008,3 hPa 0,0 l/m 0 min 0 min 45 W/m 20,9 km/h (4 Bft) 100,00 %
30.01.2017 12:34 6,7 C 6,7 C 5,6 C 99 % 15 lf 1008,3 hPa 0,0 l/m 0 min 0 min 48 W/m 25,1 km/h (4 Bft) 100,00 %
30.01.2017 12:36 6,7 C 6,7 C 5,6 C 99 % 15 lf 1008,3 hPa 0,0 l/m 0 min 2 min 56 W/m 23,0 km/h (4 Bft) 100,00 %
30.01.2017 12:38 6,7 C 6,7 C 5,6 C 99 % 15 lf 1008,3 hPa 0,0 l/m 0 min 2 min 56 W/m 37,7 km/h (5 Bft) 97,83 %
30.01.2017 12:40 6,7 C 6,7 C 5,6 C 99 % 15 lf 1008,3 hPa 0,0 l/m 0 min 2 min 55 W/m 29,3 km/h (5 Bft) 95,74 %
30.01.2017 12:42 6,7 C 6,7 C 5,6 C 99 % 15 lf 1008,4 hPa 0,0 l/m 0 min 2 min 63 W/m 25,1 km/h (4 Bft) 97,87 %
30.01.2017 12:44 6,7 C 6,7 C 5,6 C 99 % 15 lf 1008,4 hPa 0,0 l/m 0 min 0 min 60 W/m 31,4 km/h (5 Bft) 89,36 %
30.01.2017 12:46 6,7 C 6,7 C 5,6 C 99 % 15 lf 1008,3 hPa 0,0 l/m 0 min 2 min 65 W/m 23,0 km/h (4 Bft) 100,00 %
30.01.2017 12:48 6,8 C 6,7 C 5,6 C 99 % 15 lf 1008,3 hPa 0,0 l/m 0 min 0 min 65 W/m 31,4 km/h (5 Bft) 100,00 %
30.01.2017 12:50 6,8 C 7,2 C 5,6 C 99 % 15 lf 1008,3 hPa 0,0 l/m 0 min 2 min 68 W/m 31,4 km/h (5 Bft) 97,83 %
30.01.2017 12:52 6,8 C 7,2 C 5,6 C 99 % 15 lf 1008,3 hPa 0,0 l/m 0 min 2 min 65 W/m 23,0 km/h (4 Bft) 97,87 %
30.01.2017 12:54 6,8 C 7,2 C 5,6 C 99 % 15 lf 1008,3 hPa 0,0 l/m 0 min 0 min 64 W/m 31,4 km/h (5 Bft) 95,74 %
30.01.2017 12:56 6,8 C 7,2 C 5,6 C 99 % 15 lf 1008,3 hPa 0,0 l/m 0 min 0 min 58 W/m 25,1 km/h (4 Bft) 97,87 %
30.01.2017 12:58 6,8 C 7,2 C 5,6 C 99 % 15 lf 1008,3 hPa 0,0 l/m 0 min 0 min 53 W/m 25,1 km/h (4 Bft) 97,87 %
30.01.2017 13:00 6,8 C 7,2 C 5,6 C 99 % 15 lf 1008,3 hPa 0,0 l/m 0 min 2 min 58 W/m 25,1 km/h (4 Bft) 97,87 %
30.01.2017 13:02 6,8 C 7,2 C 5,6 C 99 % 15 lf 1008,3 hPa 0,0 l/m 0 min 2 min 57 W/m 23,0 km/h (4 Bft) 97,87 %
30.01.2017 13:04 6,8 C 6,7 C 5,6 C 99 % 15 lf 1008,3 hPa 0,0 l/m 0 min 0 min 60 W/m 25,1 km/h (4 Bft) 95,74 %
30.01.2017 13:06 6,8 C 6,7 C 5,6 C 99 % 15 lf 1008,3 hPa 0,0 l/m 0 min 2 min 60 W/m 25,1 km/h (4 Bft) 97,14 %
30.01.2017 13:08 6,8 C 6,7 C 5,6 C 99 % 15 lf 1008,3 hPa 0,0 l/m 0 min 2 min 60 W/m 31,4 km/h (5 Bft) 97,87 %
30.01.2017 13:10 6,8 C 6,7 C 5,6 C 99 % 15 lf 1008,3 hPa 0,0 l/m 0 min 2 min 58 W/m 29,3 km/h (5 Bft) 97,87 %
30.01.2017 13:12 6,8 C 7,2 C 5,6 C 99 % 15 lf 1008,2 hPa 0,0 l/m 0 min 2 min 56 W/m 18,8 km/h (3 Bft) 95,65 %
30.01.2017 13:14 6,8 C 7,2 C 5,6 C 99 % 15 lf 1008,2 hPa 0,0 l/m 0 min 2 min 58 W/m 27,2 km/h (4 Bft) 97,87 %
30.01.2017 13:16 6,8 C 6,7 C 5,6 C 99 % 15 lf 1008,1 hPa 0,0 l/m 0 min 2 min 60 W/m 31,4 km/h (5 Bft) 91,49 %
30.01.2017 13:18 6,8 C 6,7 C 5,6 C 99 % 15 lf 1008,1 hPa 0,0 l/m 0 min 0 min 59 W/m 25,1 km/h (4 Bft) 93,62 %
30.01.2017 13:20 6,8 C 6,7 C 5,6 C 99 % 15 lf 1008,1 hPa 0,0 l/m 0 min 2 min 58 W/m 27,2 km/h (4 Bft) 100,00 %
30.01.2017 13:22 6,8 C 6,7 C 5,6 C 99 % 15 lf 1008,1 hPa 0,0 l/m 0 min 0 min 64 W/m 20,9 km/h (4 Bft) 100,00 %
30.01.2017 13:24 6,8 C 7,2 C 5,6 C 99 % 15 lf 1008,1 hPa 0,0 l/m 0 min 2 min 68 W/m 25,1 km/h (4 Bft) 97,83 %
30.01.2017 13:26 6,8 C 7,2 C 5,6 C 99 % 15 lf 1008,0 hPa 0,0 l/m 0 min 0 min 70 W/m 27,2 km/h (4 Bft) 100,00 %
30.01.2017 13:28 6,8 C 7,2 C 5,6 C 99 % 15 lf 1008,0 hPa 0,0 l/m 0 min 0 min 66 W/m 18,8 km/h (3 Bft) 100,00 %
30.01.2017 13:30 6,8 C 7,2 C 5,6 C 99 % 15 lf 1007,8 hPa 0,0 l/m 0 min 2 min 68 W/m 23,0 km/h (4 Bft) 100,00 %
30.01.2017 13:32 6,8 C 7,2 C 5,6 C 99 % 15 lf 1007,9 hPa 0,0 l/m 0 min 2 min 73 W/m 16,7 km/h (3 Bft) 97,87 %
30.01.2017 13:34 6,8 C 7,2 C 5,6 C 99 % 15 lf 1007,9 hPa 0,0 l/m 0 min 0 min 72 W/m 27,2 km/h (4 Bft) 100,00 %
30.01.2017 13:36 6,8 C 7,2 C 5,6 C 99 % 15 lf 1007,9 hPa 0,0 l/m 0 min 0 min 67 W/m 23,0 km/h (4 Bft) 98,28 %
30.01.2017 13:38 6,9 C 7,2 C 5,6 C 99 % 15 lf 1007,9 hPa 0,0 l/m 0 min 0 min 65 W/m 33,5 km/h (5 Bft) 95,74 %
30.01.2017 13:40 6,9 C 7,2 C 5,6 C 99 % 15 lf 1007,9 hPa 0,0 l/m 0 min 0 min 65 W/m 27,2 km/h (4 Bft) 97,87 %
30.01.2017 13:42 6,9 C 7,2 C 5,6 C 99 % 15 lf 1007,9 hPa 0,0 l/m 0 min 0 min 61 W/m 18,8 km/h (3 Bft) 97,87 %
30.01.2017 13:44 6,9 C 7,2 C 5,6 C 99 % 15 lf 1007,8 hPa 0,0 l/m 0 min 0 min 52 W/m 23,0 km/h (4 Bft) 93,48 %
30.01.2017 13:46 6,9 C 7,2 C 5,6 C 99 % 15 lf 1007,8 hPa 0,0 l/m 0 min 0 min 55 W/m 23,0 km/h (4 Bft) 97,87 %
30.01.2017 13:48 6,9 C 7,2 C 5,6 C 99 % 15 lf 1007,9 hPa 0,0 l/m 0 min 0 min 55 W/m 20,9 km/h (4 Bft) 100,00 %
30.01.2017 13:50 6,9 C 7,2 C 5,6 C 99 % 15 lf 1007,9 hPa 0,0 l/m 0 min 0 min 46 W/m 18,8 km/h (3 Bft) 95,74 %
30.01.2017 13:52 6,9 C 7,2 C 5,6 C 99 % 15 lf 1007,9 hPa 0,0 l/m 0 min 0 min 43 W/m 20,9 km/h (4 Bft) 95,74 %
30.01.2017 13:54 6,9 C 7,2 C 5,6 C 99 % 15 lf 1007,9 hPa 0,0 l/m 0 min 0 min 44 W/m 20,9 km/h (4 Bft) 95,74 %
30.01.2017 13:56 6,9 C 7,2 C 5,6 C 99 % 15 lf 1008,0 hPa 0,0 l/m 0 min 0 min 42 W/m 27,2 km/h (4 Bft) 95,65 %
30.01.2017 13:58 6,9 C 7,2 C 5,6 C 99 % 15 lf 1007,9 hPa 0,0 l/m 0 min 2 min 41 W/m 27,2 km/h (4 Bft) 95,74 %
30.01.2017 14:00 6,9 C 7,2 C 5,6 C 99 % 15 lf 1007,8 hPa 0,0 l/m 0 min 0 min 41 W/m 20,9 km/h (4 Bft) 95,74 %
30.01.2017 14:02 6,9 C 7,2 C 5,6 C 99 % 15 lf 1007,8 hPa 0,0 l/m 0 min 0 min 39 W/m 23,0 km/h (4 Bft) 95,74 %
30.01.2017 14:04 6,9 C 7,2 C 5,6 C 99 % 15 lf 1007,8 hPa 0,0 l/m 0 min 0 min 37 W/m 18,8 km/h (3 Bft) 91,49 %
30.01.2017 14:06 6,9 C 7,2 C 5,6 C 99 % 15 lf 1007,9 hPa 0,0 l/m 0 min 0 min 37 W/m 27,2 km/h (4 Bft) 97,14 %
30.01.2017 14:08 6,9 C 7,2 C 5,6 C 99 % 15 lf 1007,9 hPa 0,0 l/m 0 min 0 min 36 W/m 20,9 km/h (4 Bft) 95,74 %
30.01.2017 14:10 6,9 C 7,2 C 5,6 C 99 % 15 lf 1007,9 hPa 0,0 l/m 0 min 0 min 35 W/m 25,1 km/h (4 Bft) 97,83 %
30.01.2017 14:12 6,9 C 7,2 C 5,6 C 99 % 15 lf 1007,8 hPa 0,0 l/m 0 min 0 min 41 W/m 27,2 km/h (4 Bft) 95,74 %
30.01.2017 14:14 6,9 C 7,2 C 5,6 C 99 % 15 lf 1007,8 hPa 0,0 l/m 0 min 0 min 38 W/m 18,8 km/h (3 Bft) 95,74 %
30.01.2017 14:16 6,9 C 7,2 C 5,6 C 99 % 15 lf 1007,8 hPa 0,0 l/m 0 min 0 min 36 W/m 20,9 km/h (4 Bft) 95,74 %
30.01.2017 14:18 6,9 C 7,2 C 5,6 C 99 % 15 lf 1007,9 hPa 0,0 l/m 0 min 0 min 36 W/m 20,9 km/h (4 Bft) 93,62 %
30.01.2017 14:20 6,9 C 7,2 C 5,6 C 99 % 15 lf 1007,7 hPa 0,0 l/m 0 min 0 min 35 W/m 23,0 km/h (4 Bft) 89,36 %
30.01.2017 14:22 6,9 C 7,2 C 5,6 C 99 % 15 lf 1007,8 hPa 0,0 l/m 0 min 2 min 33 W/m 20,9 km/h (4 Bft) 95,65 %
30.01.2017 14:24 6,9 C 7,2 C 5,6 C 99 % 15 lf 1007,9 hPa 0,0 l/m 0 min 2 min 30 W/m 16,7 km/h (3 Bft) 95,74 %
30.01.2017 14:26 6,9 C 7,2 C 5,6 C 99 % 15 lf 1007,9 hPa 0,0 l/m 0 min 0 min 31 W/m 20,9 km/h (4 Bft) 89,36 %
30.01.2017 14:28 6,9 C 7,2 C 5,6 C 99 % 15 lf 1007,8 hPa 0,0 l/m 0 min 2 min 30 W/m 20,9 km/h (4 Bft) 93,62 %
30.01.2017 14:30 6,9 C 7,2 C 5,6 C 99 % 15 lf 1007,8 hPa 0,0 l/m 0 min 0 min 33 W/m 18,8 km/h (3 Bft) 89,36 %
30.01.2017 14:32 6,9 C 7,2 C 5,6 C 99 % 15 lf 1007,8 hPa 0,0 l/m 0 min 0 min 35 W/m 16,7 km/h (3 Bft) 85,19 %
30.01.2017 14:34 6,9 C 7,2 C 5,6 C 99 % 15 lf 1007,8 hPa 0,0 l/m 0 min 0 min 41 W/m 14,6 km/h (3 Bft) 95,74 %
30.01.2017 14:36 7,0 C 7,2 C 5,6 C 99 % 15 lf 1007,8 hPa 0,0 l/m 0 min 2 min 52 W/m 23,0 km/h (4 Bft) 93,88 %
30.01.2017 14:38 7,0 C 7,2 C 5,6 C 99 % 15 lf 1007,8 hPa 0,0 l/m 0 min 2 min 51 W/m 20,9 km/h (4 Bft) 95,74 %
30.01.2017 14:40 7,0 C 7,2 C 5,6 C 99 % 15 lf 1007,8 hPa 0,0 l/m 0 min 2 min 46 W/m 23,0 km/h (4 Bft) 87,23 %
30.01.2017 14:42 7,0 C 7,2 C 5,6 C 99 % 15 lf 1007,8 hPa 0,0 l/m 0 min 2 min 44 W/m 20,9 km/h (4 Bft) 93,62 %
30.01.2017 14:44 7,0 C 7,2 C 5,6 C 99 % 15 lf 1007,8 hPa 0,0 l/m 0 min 2 min 45 W/m 20,9 km/h (4 Bft) 93,62 %
30.01.2017 14:46 7,0 C 7,2 C 5,6 C 99 % 15 lf 1007,8 hPa 0,0 l/m 0 min 0 min 39 W/m 20,9 km/h (4 Bft) 91,30 %
30.01.2017 14:48 7,0 C 7,2 C 5,6 C 99 % 15 lf 1007,8 hPa 0,0 l/m 0 min 0 min 40 W/m 23,0 km/h (4 Bft) 93,62 %
30.01.2017 14:50 7,0 C 7,2 C 5,6 C 99 % 15 lf 1007,8 hPa 0,0 l/m 0 min 0 min 32 W/m 27,2 km/h (4 Bft) 91,49 %
30.01.2017 14:52 7,0 C 7,2 C 5,6 C 99 % 15 lf 1007,8 hPa 0,0 l/m 0 min 2 min 32 W/m 23,0 km/h (4 Bft) 91,49 %
30.01.2017 14:54 7,0 C 7,2 C 5,6 C 99 % 15 lf 1007,8 hPa 0,0 l/m 0 min 2 min 31 W/m 18,8 km/h (3 Bft) 93,62 %
30.01.2017 14:56 7,0 C 7,2 C 5,6 C 99 % 15 lf 1007,8 hPa 0,0 l/m 0 min 2 min 29 W/m 20,9 km/h (4 Bft) 87,23 %
30.01.2017 14:58 7,0 C 7,2 C 5,6 C 99 % 15 lf 1007,9 hPa 0,0 l/m 0 min 2 min 27 W/m 16,7 km/h (3 Bft) 93,62 %
30.01.2017 15:00 7,0 C 7,2 C 5,6 C 99 % 15 lf 1007,8 hPa 0,0 l/m 0 min 2 min 27 W/m 12,6 km/h (3 Bft) 97,83 %
30.01.2017 15:02 7,0 C 7,2 C 5,6 C 99 % 15 lf 1007,8 hPa 0,0 l/m 0 min 2 min 23 W/m 16,7 km/h (3 Bft) 93,62 %
30.01.2017 15:04 7,0 C 7,2 C 5,6 C 99 % 15 lf 1007,9 hPa 0,0 l/m 0 min 2 min 21 W/m 12,6 km/h (3 Bft) 95,74 %
30.01.2017 15:06 7,0 C 7,2 C 5,6 C 99 % 15 lf 1007,9 hPa 0,2 l/m 0 min 2 min 23 W/m 8,4 km/h (2 Bft) 91,67 %
30.01.2017 15:08 7,0 C 7,2 C 5,6 C 99 % 15 lf 1008,0 hPa 0,0 l/m 0 min 2 min 29 W/m 10,5 km/h (2 Bft) 95,74 %
30.01.2017 15:10 7,0 C 7,2 C 5,6 C 99 % 15 lf 1007,9 hPa 0,0 l/m 0 min 2 min 28 W/m 18,8 km/h (3 Bft) 95,74 %
30.01.2017 15:12 7,0 C 7,2 C 5,6 C 99 % 15 lf 1008,0 hPa 0,0 l/m 0 min 2 min 24 W/m 23,0 km/h (4 Bft) 91,49 %
30.01.2017 15:14 7,0 C 7,2 C 5,6 C 99 % 15 lf 1007,9 hPa 0,0 l/m 0 min 2 min 19 W/m 14,6 km/h (3 Bft) 93,62 %
30.01.2017 15:16 7,0 C 7,2 C 5,6 C 99 % 15 lf 1008,0 hPa 0,0 l/m 0 min 2 min 21 W/m 23,0 km/h (4 Bft) 97,83 %
30.01.2017 15:18 7,0 C 7,2 C 5,6 C 99 % 15 lf 1008,0 hPa 0,0 l/m 0 min 2 min 28 W/m 33,5 km/h (5 Bft) 91,49 %
30.01.2017 15:20 7,0 C 7,2 C 5,6 C 99 % 15 lf 1008,0 hPa 0,0 l/m 0 min 2 min 36 W/m 20,9 km/h (4 Bft) 97,87 %
30.01.2017 15:22 7,0 C 7,2 C 5,6 C 99 % 15 lf 1008,0 hPa 0,0 l/m 0 min 2 min 46 W/m 18,8 km/h (3 Bft) 97,87 %
30.01.2017 15:24 7,0 C 7,2 C 5,6 C 99 % 15 lf 1007,9 hPa 0,0 l/m 0 min 0 min 51 W/m 23,0 km/h (4 Bft) 95,74 %
30.01.2017 15:26 7,0 C 7,2 C 5,6 C 99 % 15 lf 1008,0 hPa 0,0 l/m 0 min 0 min 53 W/m 23,0 km/h (4 Bft) 93,62 %
30.01.2017 15:28 7,0 C 7,2 C 5,6 C 99 % 15 lf 1008,0 hPa 0,0 l/m 0 min 0 min 50 W/m 23,0 km/h (4 Bft) 97,87 %
30.01.2017 15:30 7,0 C 7,2 C 5,6 C 99 % 15 lf 1008,0 hPa 0,0 l/m 0 min 0 min 46 W/m 20,9 km/h (4 Bft) 86,96 %
30.01.2017 15:32 7,0 C 7,2 C 5,6 C 99 % 15 lf 1008,0 hPa 0,0 l/m 0 min 0 min 47 W/m 18,8 km/h (3 Bft) 97,87 %
30.01.2017 15:34 7,0 C 7,2 C 5,6 C 99 % 15 lf 1008,0 hPa 0,0 l/m 0 min 0 min 43 W/m 14,6 km/h (3 Bft) 100,00 %
30.01.2017 15:36 6,9 C 7,2 C 5,6 C 99 % 15 lf 1008,1 hPa 0,0 l/m 0 min 0 min 39 W/m 12,6 km/h (3 Bft) 97,14 %
30.01.2017 15:38 6,9 C 7,2 C 5,6 C 99 % 15 lf 1008,2 hPa 0,0 l/m 0 min 0 min 39 W/m 18,8 km/h (3 Bft) 97,87 %
30.01.2017 15:40 6,9 C 7,2 C 5,6 C 99 % 15 lf 1008,2 hPa 0,0 l/m 0 min 0 min 36 W/m 14,6 km/h (3 Bft) 97,87 %
30.01.2017 15:42 6,9 C 7,2 C 5,6 C 99 % 15 lf 1008,2 hPa 0,0 l/m 0 min 0 min 36 W/m 14,6 km/h (3 Bft) 96,23 %
30.01.2017 15:44 6,9 C 7,2 C 5,6 C 99 % 15 lf 1008,3 hPa 0,0 l/m 0 min 0 min 35 W/m 18,8 km/h (3 Bft) 97,87 %
30.01.2017 15:46 6,9 C 6,7 C 5,6 C 99 % 15 lf 1008,3 hPa 0,0 l/m 0 min 0 min 33 W/m 18,8 km/h (3 Bft) 100,00 %
30.01.2017 15:48 6,9 C 7,2 C 5,6 C 99 % 15 lf 1008,3 hPa 0,0 l/m 0 min 0 min 34 W/m 12,6 km/h (3 Bft) 97,87 %
30.01.2017 15:50 6,9 C 6,7 C 5,6 C 99 % 15 lf 1008,4 hPa 0,0 l/m 0 min 0 min 30 W/m 16,7 km/h (3 Bft) 95,74 %
30.01.2017 15:52 6,9 C 6,7 C 5,6 C 99 % 15 lf 1008,4 hPa 0,0 l/m 0 min 0 min 30 W/m 20,9 km/h (4 Bft) 100,00 %
30.01.2017 15:54 6,9 C 6,7 C 5,6 C 99 % 15 lf 1008,4 hPa 0,0 l/m 0 min 0 min 33 W/m 12,6 km/h (3 Bft) 100,00 %
30.01.2017 15:56 6,8 C 6,7 C 5,6 C 99 % 15 lf 1008,4 hPa 0,0 l/m 0 min 0 min 32 W/m 14,6 km/h (3 Bft) 100,00 %
30.01.2017 15:58 6,8 C 6,7 C 5,6 C 99 % 15 lf 1008,4 hPa 0,0 l/m 0 min 0 min 28 W/m 18,8 km/h (3 Bft) 100,00 %
30.01.2017 16:00 6,8 C 6,7 C 5,6 C 99 % 15 lf 1008,4 hPa 0,0 l/m 0 min 0 min 26 W/m 14,6 km/h (3 Bft) 95,74 %
30.01.2017 16:02 6,8 C 6,7 C 5,6 C 99 % 15 lf 1008,5 hPa 0,0 l/m 0 min 0 min 27 W/m 12,6 km/h (3 Bft) 100,00 %
30.01.2017 16:04 6,8 C 6,7 C 5,6 C 99 % 15 lf 1008,5 hPa 0,0 l/m 0 min 0 min 30 W/m 14,6 km/h (3 Bft) 97,87 %
30.01.2017 16:06 6,8 C 6,7 C 5,0 C 99 % 15 lf 1008,5 hPa 0,0 l/m 0 min 0 min 26 W/m 12,6 km/h (3 Bft) 100,00 %
30.01.2017 16:08 6,8 C 6,7 C 5,0 C 99 % 15 lf 1008,5 hPa 0,0 l/m 0 min 0 min 26 W/m 16,7 km/h (3 Bft) 100,00 %
30.01.2017 16:10 6,8 C 6,7 C 5,0 C 99 % 15 lf 1008,6 hPa 0,0 l/m 0 min 0 min 26 W/m 20,9 km/h (4 Bft) 100,00 %
30.01.2017 16:12 6,8 C 6,7 C 5,0 C 99 % 15 lf 1008,6 hPa 0,0 l/m 0 min 0 min 21 W/m 18,8 km/h (3 Bft) 100,00 %
30.01.2017 16:14 6,7 C 6,7 C 5,0 C 99 % 15 lf 1008,6 hPa 0,0 l/m 0 min 0 min 18 W/m 23,0 km/h (4 Bft) 100,00 %
30.01.2017 16:16 6,7 C 6,7 C 5,0 C 99 % 15 lf 1008,6 hPa 0,0 l/m 0 min 0 min 20 W/m 14,6 km/h (3 Bft) 100,00 %
30.01.2017 16:18 6,7 C 6,7 C 5,0 C 99 % 15 lf 1008,7 hPa 0,0 l/m 0 min 0 min 16 W/m 18,8 km/h (3 Bft) 100,00 %
30.01.2017 16:20 6,7 C 6,7 C 5,0 C 99 % 15 lf 1008,7 hPa 0,0 l/m 0 min 0 min 15 W/m 18,8 km/h (3 Bft) 100,00 %
30.01.2017 16:22 6,7 C 6,7 C 5,0 C 99 % 15 lf 1008,7 hPa 0,0 l/m 0 min 0 min 14 W/m 16,7 km/h (3 Bft) 100,00 %
30.01.2017 16:24 6,7 C 6,7 C 5,0 C 99 % 15 lf 1008,7 hPa 0,0 l/m 0 min 0 min 14 W/m 27,2 km/h (4 Bft) 100,00 %
30.01.2017 16:26 6,7 C 6,7 C 5,0 C 99 % 15 lf 1008,8 hPa 0,0 l/m 0 min 0 min 16 W/m 16,7 km/h (3 Bft) 97,87 %
30.01.2017 16:28 6,7 C 6,7 C 5,0 C 99 % 15 lf 1008,8 hPa 0,0 l/m 0 min 0 min 18 W/m 14,6 km/h (3 Bft) 95,74 %
30.01.2017 16:30 6,6 C 6,7 C 5,0 C 99 % 15 lf 1008,8 hPa 0,0 l/m 0 min 0 min 16 W/m 14,6 km/h (3 Bft) 97,87 %
30.01.2017 16:32 6,6 C 6,7 C 5,0 C 99 % 15 lf 1008,8 hPa 0,0 l/m 0 min 2 min 15 W/m 16,7 km/h (3 Bft) 97,87 %
30.01.2017 16:34 6,6 C 6,7 C 5,0 C 99 % 15 lf 1008,8 hPa 0,0 l/m 0 min 0 min 14 W/m 12,6 km/h (3 Bft) 100,00 %
30.01.2017 16:36 6,6 C 6,7 C 5,0 C 99 % 15 lf 1008,8 hPa 0,0 l/m 0 min 0 min 14 W/m 10,5 km/h (2 Bft) 95,92 %
30.01.2017 16:38 6,6 C 6,7 C 5,0 C 99 % 15 lf 1008,9 hPa 0,0 l/m 0 min 0 min 17 W/m 12,6 km/h (3 Bft) 97,87 %
30.01.2017 16:40 6,6 C 6,7 C 5,0 C 99 % 15 lf 1008,9 hPa 0,0 l/m 0 min 0 min 17 W/m 18,8 km/h (3 Bft) 97,83 %
30.01.2017 16:42 6,6 C 6,7 C 5,0 C 99 % 15 lf 1008,9 hPa 0,2 l/m 0 min 0 min 16 W/m 16,7 km/h (3 Bft) 94,29 %
30.01.2017 16:44 6,5 C 6,7 C 5,0 C 99 % 15 lf 1008,9 hPa 0,0 l/m 0 min 0 min 17 W/m 14,6 km/h (3 Bft) 95,74 %
30.01.2017 16:46 6,5 C 6,7 C 5,0 C 99 % 15 lf 1008,9 hPa 0,0 l/m 0 min 0 min 19 W/m 10,5 km/h (2 Bft) 93,62 %
30.01.2017 16:48 6,5 C 6,7 C 5,0 C 99 % 15 lf 1008,9 hPa 0,0 l/m 0 min 0 min 18 W/m 12,6 km/h (3 Bft) 95,74 %
30.01.2017 16:50 6,5 C 6,7 C 5,0 C 99 % 15 lf 1008,9 hPa 0,0 l/m 0 min 0 min 16 W/m 10,5 km/h (2 Bft) 95,74 %
30.01.2017 16:52 6,5 C 6,7 C 5,0 C 99 % 15 lf 1008,9 hPa 0,0 l/m 0 min 0 min 13 W/m 12,6 km/h (3 Bft) 91,49 %
30.01.2017 16:54 6,5 C 6,7 C 5,0 C 99 % 15 lf 1009,0 hPa 0,0 l/m 0 min 0 min 12 W/m 14,6 km/h (3 Bft) 91,30 %
30.01.2017 16:56 6,4 C 6,1 C 5,0 C 99 % 15 lf 1009,0 hPa 0,0 l/m 0 min 0 min 11 W/m 12,6 km/h (3 Bft) 87,23 %
30.01.2017 16:58 6,4 C 6,1 C 5,0 C 99 % 15 lf 1009,0 hPa 0,0 l/m 0 min 0 min 9 W/m 12,6 km/h (3 Bft) 97,87 %
30.01.2017 17:00 6,4 C 6,1 C 5,0 C 99 % 15 lf 1009,0 hPa 0,0 l/m 0 min 0 min 9 W/m 10,5 km/h (2 Bft) 91,49 %
30.01.2017 17:02 6,4 C 6,1 C 5,0 C 99 % 15 lf 1009,2 hPa 0,0 l/m 0 min 0 min 7 W/m 12,6 km/h (3 Bft) 89,36 %
30.01.2017 17:04 6,4 C 6,1 C 5,0 C 99 % 15 lf 1009,1 hPa 0,0 l/m 0 min 0 min 7 W/m 12,6 km/h (3 Bft) 93,62 %
30.01.2017 17:06 6,4 C 6,1 C 5,0 C 99 % 15 lf 1009,2 hPa 0,0 l/m 0 min 0 min 7 W/m 16,7 km/h (3 Bft) 94,55 %
30.01.2017 17:08 6,4 C 6,1 C 4,4 C 99 % 15 lf 1009,3 hPa 0,0 l/m 0 min 0 min 7 W/m 14,6 km/h (3 Bft) 89,13 %
30.01.2017 17:10 6,4 C 6,1 C 4,4 C 99 % 15 lf 1009,3 hPa 0,0 l/m 0 min 0 min 5 W/m 12,6 km/h (3 Bft) 93,62 %
30.01.2017 17:12 6,3 C 6,1 C 4,4 C 99 % 15 lf 1009,3 hPa 0,0 l/m 0 min 0 min 6 W/m 10,5 km/h (2 Bft) 95,74 %
30.01.2017 17:14 6,3 C 6,1 C 4,4 C 99 % 15 lf 1009,3 hPa 0,0 l/m 0 min 0 min 7 W/m 10,5 km/h (2 Bft) 93,62 %
30.01.2017 17:16 6,3 C 6,1 C 4,4 C 99 % 15 lf 1009,3 hPa 0,0 l/m 0 min 0 min 7 W/m 14,6 km/h (3 Bft) 91,49 %
30.01.2017 17:18 6,3 C 6,1 C 4,4 C 99 % 15 lf 1009,4 hPa 0,0 l/m 0 min 0 min 6 W/m 8,4 km/h (2 Bft) 93,62 %
30.01.2017 17:20 6,3 C 6,1 C 4,4 C 99 % 15 lf 1009,4 hPa 0,0 l/m 0 min 0 min 5 W/m 12,6 km/h (3 Bft) 97,83 %
30.01.2017 17:22 6,3 C 6,1 C 4,4 C 99 % 15 lf 1009,5 hPa 0,0 l/m 0 min 0 min 5 W/m 12,6 km/h (3 Bft) 95,74 %
30.01.2017 17:24 6,2 C 6,1 C 4,4 C 99 % 15 lf 1009,5 hPa 0,0 l/m 0 min 0 min 5 W/m 12,6 km/h (3 Bft) 93,62 %
30.01.2017 17:26 6,2 C 6,1 C 4,4 C 99 % 15 lf 1009,5 hPa 0,0 l/m 0 min 0 min 5 W/m 12,6 km/h (3 Bft) 93,62 %
30.01.2017 17:28 6,2 C 6,1 C 4,4 C 98 % 15 lf 1009,6 hPa 0,0 l/m 0 min 0 min 5 W/m 12,6 km/h (3 Bft) 93,62 %
30.01.2017 17:30 6,2 C 6,1 C 4,4 C 98 % 15 lf 1009,5 hPa 0,0 l/m 0 min 0 min 5 W/m 8,4 km/h (2 Bft) 93,62 %
30.01.2017 17:32 6,2 C 6,1 C 4,4 C 98 % 15 lf 1009,6 hPa 0,0 l/m 0 min 0 min 5 W/m 10,5 km/h (2 Bft) 91,49 %
30.01.2017 17:34 6,2 C 6,1 C 4,4 C 98 % 15 lf 1009,6 hPa 0,0 l/m 0 min 0 min 5 W/m 8,4 km/h (2 Bft) 89,36 %
30.01.2017 17:36 6,2 C 6,1 C 4,4 C 98 % 15 lf 1009,6 hPa 0,0 l/m 0 min 0 min 5 W/m 12,6 km/h (3 Bft) 96,00 %
30.01.2017 17:38 6,2 C 6,1 C 4,4 C 98 % 15 lf 1009,6 hPa 0,0 l/m 0 min 0 min 5 W/m 12,6 km/h (3 Bft) 100,00 %
30.01.2017 17:40 6,1 C 6,1 C 4,4 C 98 % 15 lf 1009,6 hPa 0,0 l/m 0 min 0 min 5 W/m 10,5 km/h (2 Bft) 100,00 %
30.01.2017 17:42 6,1 C 6,1 C 4,4 C 98 % 15 lf 1009,7 hPa 0,0 l/m 0 min 0 min 5 W/m 12,6 km/h (3 Bft) 100,00 %
30.01.2017 17:44 6,1 C 6,1 C 4,4 C 98 % 15 lf 1009,7 hPa 0,0 l/m 0 min 0 min 5 W/m 12,6 km/h (3 Bft) 100,00 %
30.01.2017 17:46 6,1 C 6,1 C 4,4 C 98 % 15 lf 1009,7 hPa 0,0 l/m 0 min 0 min 5 W/m 8,4 km/h (2 Bft) 100,00 %
30.01.2017 17:48 6,1 C 6,1 C 4,4 C 98 % 15 lf 1009,8 hPa 0,0 l/m 0 min 0 min 5 W/m 10,5 km/h (2 Bft) 100,00 %
30.01.2017 17:50 6,1 C 6,1 C 4,4 C 98 % 15 lf 1009,8 hPa 0,0 l/m 0 min 0 min 5 W/m 10,5 km/h (2 Bft) 93,62 %
30.01.2017 17:52 6,1 C 6,1 C 4,4 C 98 % 15 lf 1009,8 hPa 0,0 l/m 0 min 0 min 5 W/m 12,6 km/h (3 Bft) 100,00 %
30.01.2017 17:54 6,1 C 6,1 C 4,4 C 99 % 15 lf 1009,8 hPa 0,0 l/m 0 min 0 min 5 W/m 14,6 km/h (3 Bft) 100,00 %
30.01.2017 17:56 6,0 C 6,1 C 4,4 C 99 % 15 lf 1009,9 hPa 0,0 l/m 0 min 0 min 5 W/m 12,6 km/h (3 Bft) 100,00 %
30.01.2017 17:58 6,0 C 6,1 C 4,4 C 99 % 15 lf 1009,8 hPa 0,0 l/m 0 min 0 min 5 W/m 10,5 km/h (2 Bft) 100,00 %
30.01.2017 18:00 6,0 C 6,1 C 4,4 C 99 % 15 lf 1009,8 hPa 0,0 l/m 0 min 0 min 5 W/m 14,6 km/h (3 Bft) 100,00 %
30.01.2017 18:02 6,0 C 6,1 C 4,4 C 99 % 15 lf 1009,9 hPa 0,0 l/m 0 min 0 min 5 W/m 12,6 km/h (3 Bft) 97,22 %
30.01.2017 18:04 6,0 C 6,1 C 4,4 C 99 % 15 lf 1009,9 hPa 0,0 l/m 0 min 0 min 5 W/m 12,6 km/h (3 Bft) 97,83 %
30.01.2017 18:06 6,0 C 6,1 C 4,4 C 99 % 15 lf 1009,9 hPa 0,0 l/m 0 min 0 min 5 W/m 12,6 km/h (3 Bft) 96,23 %
30.01.2017 18:08 5,9 C 6,1 C 4,4 C 99 % 15 lf 1009,9 hPa 0,0 l/m 0 min 2 min 5 W/m 12,6 km/h (3 Bft) 100,00 %
30.01.2017 18:10 5,9 C 6,1 C 4,4 C 99 % 15 lf 1009,9 hPa 0,0 l/m 0 min 2 min 5 W/m 14,6 km/h (3 Bft) 100,00 %
30.01.2017 18:12 5,9 C 6,1 C 4,4 C 99 % 15 lf 1010,0 hPa 0,0 l/m 0 min 2 min 5 W/m 12,6 km/h (3 Bft) 100,00 %
30.01.2017 18:14 5,9 C 6,1 C 4,4 C 99 % 15 lf 1010,0 hPa 0,0 l/m 0 min 2 min 5 W/m 16,7 km/h (3 Bft) 97,87 %
30.01.2017 18:16 5,9 C 6,1 C 4,4 C 99 % 15 lf 1010,0 hPa 0,0 l/m 0 min 2 min 5 W/m 12,6 km/h (3 Bft) 100,00 %
30.01.2017 18:18 5,9 C 6,1 C 4,4 C 99 % 15 lf 1010,0 hPa 0,0 l/m 0 min 0 min 5 W/m 10,5 km/h (2 Bft) 100,00 %
30.01.2017 18:20 5,9 C 6,1 C 4,4 C 99 % 15 lf 1010,0 hPa 0,0 l/m 0 min 0 min 5 W/m 12,6 km/h (3 Bft) 100,00 %
30.01.2017 18:22 5,9 C 6,1 C 4,4 C 99 % 15 lf 1010,0 hPa 0,0 l/m 0 min 2 min 5 W/m 10,5 km/h (2 Bft) 97,87 %
30.01.2017 18:24 5,9 C 6,1 C 4,4 C 99 % 15 lf 1010,0 hPa 0,0 l/m 0 min 0 min 5 W/m 12,6 km/h (3 Bft) 97,87 %
30.01.2017 18:26 5,9 C 5,6 C 4,4 C 98 % 15 lf 1010,0 hPa 0,0 l/m 0 min 2 min 5 W/m 10,5 km/h (2 Bft) 97,87 %
30.01.2017 18:28 5,9 C 5,6 C 4,4 C 98 % 15 lf 1010,0 hPa 0,0 l/m 0 min 2 min 5 W/m 18,8 km/h (3 Bft) 93,62 %
30.01.2017 18:30 5,8 C 5,6 C 4,4 C 98 % 15 lf 1010,0 hPa 0,0 l/m 0 min 2 min 5 W/m 14,6 km/h (3 Bft) 95,65 %
30.01.2017 18:32 5,8 C 5,6 C 4,4 C 98 % 15 lf 1010,0 hPa 0,0 l/m 0 min 2 min 5 W/m 10,5 km/h (2 Bft) 93,75 %
30.01.2017 18:34 5,8 C 5,6 C 4,4 C 98 % 15 lf 1010,0 hPa 0,0 l/m 0 min 2 min 5 W/m 18,8 km/h (3 Bft) 93,62 %
30.01.2017 18:36 5,8 C 5,6 C 4,4 C 98 % 15 lf 1010,0 hPa 0,0 l/m 0 min 2 min 5 W/m 20,9 km/h (4 Bft) 92,00 %
30.01.2017 18:38 5,8 C 5,6 C 4,4 C 98 % 15 lf 1010,1 hPa 0,0 l/m 0 min 2 min 5 W/m 14,6 km/h (3 Bft) 91,49 %
30.01.2017 18:40 5,8 C 5,6 C 4,4 C 98 % 15 lf 1010,1 hPa 0,0 l/m 0 min 0 min 5 W/m 16,7 km/h (3 Bft) 95,65 %
30.01.2017 18:42 5,8 C 5,6 C 4,4 C 98 % 15 lf 1010,1 hPa 0,0 l/m 0 min 0 min 5 W/m 20,9 km/h (4 Bft) 91,49 %
30.01.2017 18:44 5,8 C 5,6 C 4,4 C 98 % 15 lf 1010,1 hPa 0,0 l/m 0 min 0 min 5 W/m 12,6 km/h (3 Bft) 97,87 %
30.01.2017 18:46 5,8 C 5,6 C 4,4 C 98 % 15 lf 1010,2 hPa 0,0 l/m 0 min 0 min 5 W/m 14,6 km/h (3 Bft) 93,62 %
30.01.2017 18:48 5,8 C 5,6 C 4,4 C 98 % 15 lf 1010,2 hPa 0,0 l/m 0 min 0 min 5 W/m 14,6 km/h (3 Bft) 95,74 %
30.01.2017 18:50 5,8 C 5,6 C 4,4 C 98 % 15 lf 1010,2 hPa 0,2 l/m 0 min 0 min 5 W/m 10,5 km/h (2 Bft) 91,49 %
30.01.2017 18:52 5,8 C 5,6 C 4,4 C 98 % 15 lf 1010,2 hPa 0,0 l/m 0 min 0 min 5 W/m 18,8 km/h (3 Bft) 95,65 %
30.01.2017 18:54 5,8 C 5,6 C 4,4 C 98 % 15 lf 1010,2 hPa 0,0 l/m 0 min 0 min 5 W/m 14,6 km/h (3 Bft) 93,62 %
30.01.2017 18:56 5,7 C 5,6 C 4,4 C 98 % 15 lf 1010,3 hPa 0,0 l/m 0 min 0 min 5 W/m 14,6 km/h (3 Bft) 93,62 %
30.01.2017 18:58 5,7 C 5,6 C 4,4 C 98 % 15 lf 1010,4 hPa 0,0 l/m 0 min 0 min 5 W/m 14,6 km/h (3 Bft) 95,74 %
30.01.2017 19:00 5,8 C 5,6 C 4,4 C 98 % 15 lf 1010,4 hPa 0,0 l/m 0 min 0 min 5 W/m 8,4 km/h (2 Bft) 97,87 %
30.01.2017 19:02 5,7 C 5,6 C 4,4 C 98 % 15 lf 1010,4 hPa 0,0 l/m 0 min 0 min 5 W/m 10,5 km/h (2 Bft) 97,92 %
30.01.2017 19:04 5,7 C 5,6 C 4,4 C 98 % 15 lf 1010,4 hPa 0,0 l/m 0 min 0 min 5 W/m 18,8 km/h (3 Bft) 95,65 %
30.01.2017 19:06 5,7 C 5,6 C 4,4 C 98 % 15 lf 1010,4 hPa 0,0 l/m 0 min 0 min 5 W/m 14,6 km/h (3 Bft) 95,83 %
30.01.2017 19:08 5,8 C 5,6 C 4,4 C 98 % 15 lf 1010,4 hPa 0,0 l/m 0 min 2 min 5 W/m 27,2 km/h (4 Bft) 95,74 %
30.01.2017 19:10 5,8 C 5,6 C 4,4 C 98 % 15 lf 1010,5 hPa 0,0 l/m 0 min 2 min 5 W/m 20,9 km/h (4 Bft) 91,30 %
30.01.2017 19:12 5,8 C 5,6 C 4,4 C 98 % 15 lf 1010,5 hPa 0,0 l/m 0 min 0 min 5 W/m 18,8 km/h (3 Bft) 89,36 %
30.01.2017 19:14 5,8 C 5,6 C 4,4 C 98 % 15 lf 1010,5 hPa 0,0 l/m 0 min 0 min 5 W/m 27,2 km/h (4 Bft) 97,87 %
30.01.2017 19:16 5,8 C 5,6 C 4,4 C 98 % 15 lf 1010,5 hPa 0,0 l/m 0 min 0 min 5 W/m 14,6 km/h (3 Bft) 97,87 %
30.01.2017 19:18 5,8 C 5,6 C 4,4 C 98 % 15 lf 1010,6 hPa 0,0 l/m 0 min 0 min 5 W/m 16,7 km/h (3 Bft) 93,62 %
30.01.2017 19:20 5,8 C 5,6 C 4,4 C 98 % 15 lf 1010,6 hPa 0,0 l/m 0 min 0 min 5 W/m 25,1 km/h (4 Bft) 97,87 %
30.01.2017 19:22 5,7 C 5,6 C 4,4 C 98 % 15 lf 1010,6 hPa 0,0 l/m 0 min 0 min 5 W/m 18,8 km/h (3 Bft) 93,48 %
30.01.2017 19:24 5,7 C 5,6 C 4,4 C 98 % 15 lf 1010,6 hPa 0,0 l/m 0 min 0 min 5 W/m 20,9 km/h (4 Bft) 93,62 %
30.01.2017 19:26 5,7 C 5,6 C 4,4 C 99 % 15 lf 1010,7 hPa 0,0 l/m 0 min 0 min 5 W/m 23,0 km/h (4 Bft) 97,87 %
30.01.2017 19:28 5,7 C 5,6 C 3,9 C 99 % 15 lf 1010,7 hPa 0,0 l/m 0 min 0 min 5 W/m 20,9 km/h (4 Bft) 89,36 %
30.01.2017 19:30 5,7 C 5,6 C 3,9 C 99 % 15 lf 1010,7 hPa 0,0 l/m 0 min 0 min 5 W/m 20,9 km/h (4 Bft) 97,87 %
30.01.2017 19:32 5,7 C 5,6 C 3,9 C 99 % 15 lf 1010,7 hPa 0,0 l/m 0 min 2 min 5 W/m 23,0 km/h (4 Bft) 100,00 %
30.01.2017 19:34 5,6 C 5,6 C 3,9 C 99 % 15 lf 1010,7 hPa 0,0 l/m 0 min 0 min 5 W/m 18,8 km/h (3 Bft) 93,62 %
30.01.2017 19:36 5,6 C 5,6 C 3,9 C 98 % 15 lf 1010,7 hPa 0,0 l/m 0 min 0 min 5 W/m 16,7 km/h (3 Bft) 94,34 %
30.01.2017 19:38 5,6 C 5,6 C 3,9 C 98 % 15 lf 1010,8 hPa 0,0 l/m 0 min 2 min 5 W/m 18,8 km/h (3 Bft) 97,87 %
30.01.2017 19:40 5,5 C 5,6 C 3,9 C 98 % 15 lf 1010,8 hPa 0,0 l/m 0 min 0 min 5 W/m 14,6 km/h (3 Bft) 97,83 %
30.01.2017 19:42 5,5 C 5,6 C 3,9 C 98 % 15 lf 1010,9 hPa 0,0 l/m 0 min 0 min 5 W/m 10,5 km/h (2 Bft) 93,62 %
30.01.2017 19:44 5,5 C 5,6 C 3,9 C 98 % 15 lf 1010,9 hPa 0,0 l/m 0 min 0 min 5 W/m 18,8 km/h (3 Bft) 95,74 %
30.01.2017 19:46 5,5 C 5,6 C 3,9 C 98 % 15 lf 1010,9 hPa 0,0 l/m 0 min 0 min 5 W/m 16,7 km/h (3 Bft) 89,36 %
30.01.2017 19:48 5,5 C 5,6 C 3,9 C 98 % 15 lf 1010,9 hPa 0,0 l/m 0 min 0 min 5 W/m 12,6 km/h (3 Bft) 93,62 %
30.01.2017 19:50 5,4 C 5,6 C 3,9 C 98 % 15 lf 1011,0 hPa 0,0 l/m 0 min 0 min 5 W/m 12,6 km/h (3 Bft) 95,74 %
30.01.2017 19:52 5,4 C 5,6 C 3,9 C 98 % 15 lf 1010,9 hPa 0,0 l/m 0 min 0 min 5 W/m 12,6 km/h (3 Bft) 91,30 %
30.01.2017 19:54 5,4 C 5,6 C 3,9 C 98 % 15 lf 1011,0 hPa 0,0 l/m 0 min 0 min 5 W/m 12,6 km/h (3 Bft) 95,74 %
30.01.2017 19:56 5,4 C 5,6 C 3,9 C 98 % 15 lf 1011,0 hPa 0,0 l/m 0 min 2 min 5 W/m 18,8 km/h (3 Bft) 95,74 %
30.01.2017 19:58 5,4 C 5,6 C 3,9 C 99 % 15 lf 1011,1 hPa 0,0 l/m 0 min 0 min 5 W/m 16,7 km/h (3 Bft) 95,74 %
30.01.2017 20:00 5,4 C 5,6 C 3,9 C 99 % 15 lf 1011,1 hPa 0,0 l/m 0 min 0 min 5 W/m 16,7 km/h (3 Bft) 93,62 %
30.01.2017 20:02 5,4 C 5,6 C 3,9 C 99 % 15 lf 1011,1 hPa 0,0 l/m 0 min 0 min 5 W/m 18,8 km/h (3 Bft) 91,67 %
30.01.2017 20:04 5,3 C 5,6 C 3,9 C 99 % 15 lf 1011,1 hPa 0,0 l/m 0 min 0 min 5 W/m 20,9 km/h (4 Bft) 93,48 %
30.01.2017 20:06 5,3 C 5,6 C 3,9 C 99 % 15 lf 1011,1 hPa 0,0 l/m 0 min 0 min 5 W/m 23,0 km/h (4 Bft) 96,00 %
30.01.2017 20:08 5,3 C 5,0 C 3,9 C 99 % 15 lf 1011,2 hPa 0,0 l/m 0 min 0 min 5 W/m 18,8 km/h (3 Bft) 95,74 %
30.01.2017 20:10 5,3 C 5,0 C 3,9 C 99 % 15 lf 1011,1 hPa 0,0 l/m 0 min 2 min 5 W/m 27,2 km/h (4 Bft) 95,74 %
30.01.2017 20:12 5,3 C 5,0 C 3,9 C 99 % 15 lf 1011,1 hPa 0,0 l/m 0 min 2 min 5 W/m 14,6 km/h (3 Bft) 91,49 %
30.01.2017 20:14 5,2 C 5,0 C 3,9 C 99 % 15 lf 1011,2 hPa 0,0 l/m 0 min 0 min 5 W/m 16,7 km/h (3 Bft) 93,48 %
30.01.2017 20:16 5,2 C 5,0 C 3,9 C 98 % 15 lf 1011,2 hPa 0,0 l/m 0 min 0 min 5 W/m 14,6 km/h (3 Bft) 95,74 %
30.01.2017 20:18 5,2 C 5,0 C 3,9 C 98 % 15 lf 1011,2 hPa 0,0 l/m 0 min 0 min 5 W/m 14,6 km/h (3 Bft) 91,49 %
30.01.2017 20:20 5,2 C 5,0 C 3,3 C 98 % 15 lf 1011,3 hPa 0,0 l/m 0 min 0 min 5 W/m 12,6 km/h (3 Bft) 95,74 %
30.01.2017 20:22 5,2 C 5,0 C 3,3 C 98 % 15 lf 1011,3 hPa 0,0 l/m 0 min 0 min 5 W/m 16,7 km/h (3 Bft) 95,83 %
30.01.2017 20:24 5,1 C 5,0 C 3,3 C 98 % 15 lf 1011,3 hPa 0,0 l/m 0 min 0 min 5 W/m 20,9 km/h (4 Bft) 95,74 %
30.01.2017 20:26 5,1 C 5,0 C 3,3 C 98 % 15 lf 1011,3 hPa 0,0 l/m 0 min 0 min 5 W/m 16,7 km/h (3 Bft) 93,48 %
30.01.2017 20:28 5,1 C 5,0 C 3,3 C 98 % 15 lf 1011,3 hPa 0,0 l/m 0 min 0 min 5 W/m 14,6 km/h (3 Bft) 95,74 %
30.01.2017 20:30 5,0 C 5,0 C 3,3 C 98 % 15 lf 1011,4 hPa 0,0 l/m 0 min 2 min 5 W/m 23,0 km/h (4 Bft) 93,62 %
30.01.2017 20:32 4,9 C 5,0 C 3,3 C 98 % 15 lf 1011,4 hPa 0,0 l/m 0 min 2 min 5 W/m 20,9 km/h (4 Bft) 95,74 %
30.01.2017 20:34 4,9 C 4,4 C 3,3 C 98 % 15 lf 1011,4 hPa 0,0 l/m 0 min 2 min 5 W/m 14,6 km/h (3 Bft) 95,74 %
30.01.2017 20:36 4,9 C 4,4 C 3,3 C 98 % 15 lf 1011,4 hPa 0,0 l/m 0 min 0 min 5 W/m 12,6 km/h (3 Bft) 91,43 %
30.01.2017 20:38 4,8 C 4,4 C 3,3 C 98 % 15 lf 1011,4 hPa 0,0 l/m 0 min 2 min 5 W/m 16,7 km/h (3 Bft) 95,74 %
30.01.2017 20:40 4,8 C 4,4 C 3,3 C 98 % 15 lf 1011,4 hPa 0,0 l/m 0 min 0 min 5 W/m 18,8 km/h (3 Bft) 93,62 %
30.01.2017 20:42 4,7 C 4,4 C 3,3 C 98 % 15 lf 1011,5 hPa 0,0 l/m 0 min 0 min 5 W/m 23,0 km/h (4 Bft) 97,87 %
30.01.2017 20:44 4,7 C 4,4 C 3,3 C 98 % 15 lf 1011,5 hPa 0,0 l/m 0 min 2 min 5 W/m 20,9 km/h (4 Bft) 97,87 %
30.01.2017 20:46 4,7 C 4,4 C 2,8 C 98 % 15 lf 1011,6 hPa 0,0 l/m 0 min 2 min 5 W/m 20,9 km/h (4 Bft) 93,62 %
30.01.2017 20:48 4,6 C 4,4 C 2,8 C 98 % 15 lf 1011,6 hPa 0,0 l/m 0 min 2 min 5 W/m 18,8 km/h (3 Bft) 95,65 %
30.01.2017 20:50 4,6 C 4,4 C 2,8 C 98 % 15 lf 1011,6 hPa 0,0 l/m 0 min 2 min 5 W/m 14,6 km/h (3 Bft) 100,00 %
30.01.2017 20:52 4,5 C 4,4 C 2,8 C 98 % 15 lf 1011,6 hPa 0,0 l/m 0 min 2 min 5 W/m 12,6 km/h (3 Bft) 97,87 %
30.01.2017 20:54 4,4 C 4,4 C 2,8 C 98 % 15 lf 1011,6 hPa 0,0 l/m 0 min 2 min 5 W/m 14,6 km/h (3 Bft) 97,87 %
30.01.2017 20:56 4,4 C 4,4 C 2,8 C 98 % 15 lf 1011,6 hPa 0,0 l/m 0 min 2 min 5 W/m 18,8 km/h (3 Bft) 95,74 %
30.01.2017 20:58 4,4 C 3,9 C 2,8 C 98 % 15 lf 1011,6 hPa 0,0 l/m 0 min 2 min 5 W/m 18,8 km/h (3 Bft) 97,83 %
30.01.2017 21:00 4,3 C 3,9 C 2,8 C 98 % 15 lf 1011,6 hPa 0,0 l/m 0 min 0 min 5 W/m 25,1 km/h (4 Bft) 95,74 %
30.01.2017 21:02 4,3 C 3,9 C 2,8 C 98 % 15 lf 1011,7 hPa 0,0 l/m 0 min 2 min 5 W/m 20,9 km/h (4 Bft) 100,00 %
30.01.2017 21:04 4,2 C 3,9 C 2,8 C 98 % 15 lf 1011,7 hPa 0,0 l/m 0 min 0 min 5 W/m 18,8 km/h (3 Bft) 97,87 %
30.01.2017 21:06 4,2 C 3,9 C 2,8 C 98 % 15 lf 1011,7 hPa 0,0 l/m 0 min 2 min 5 W/m 23,0 km/h (4 Bft) 98,28 %
30.01.2017 21:08 4,2 C 3,9 C 2,8 C 98 % 15 lf 1011,7 hPa 0,0 l/m 0 min 2 min 5 W/m 23,0 km/h (4 Bft) 100,00 %
30.01.2017 21:10 4,1 C 3,9 C 2,8 C 98 % 15 lf 1011,7 hPa 0,0 l/m 0 min 2 min 5 W/m 14,6 km/h (3 Bft) 95,74 %
30.01.2017 21:12 4,1 C 3,9 C 2,8 C 98 % 15 lf 1011,7 hPa 0,0 l/m 0 min 2 min 5 W/m 14,6 km/h (3 Bft) 95,74 %
30.01.2017 21:14 4,1 C 3,9 C 2,8 C 98 % 15 lf 1011,8 hPa 0,0 l/m 0 min 2 min 5 W/m 27,2 km/h (4 Bft) 100,00 %
30.01.2017 21:16 4,0 C 3,9 C 2,8 C 98 % 15 lf 1011,8 hPa 0,0 l/m 0 min 2 min 5 W/m 20,9 km/h (4 Bft) 95,74 %
30.01.2017 21:18 3,9 C 3,9 C 2,2 C 98 % 15 lf 1011,8 hPa 0,0 l/m 0 min 2 min 5 W/m 20,9 km/h (4 Bft) 100,00 %
30.01.2017 21:20 3,9 C 3,9 C 2,2 C 98 % 15 lf 1011,9 hPa 0,0 l/m 0 min 0 min 5 W/m 12,6 km/h (3 Bft) 97,87 %
30.01.2017 21:22 3,9 C 3,9 C 2,2 C 98 % 15 lf 1011,9 hPa 0,0 l/m 0 min 0 min 5 W/m 16,7 km/h (3 Bft) 97,87 %
30.01.2017 21:24 3,9 C 3,9 C 2,2 C 98 % 15 lf 1011,9 hPa 0,0 l/m 0 min 2 min 5 W/m 14,6 km/h (3 Bft) 100,00 %
30.01.2017 21:26 3,9 C 3,9 C 2,2 C 98 % 15 lf 1011,9 hPa 0,0 l/m 0 min 2 min 5 W/m 18,8 km/h (3 Bft) 97,87 %
30.01.2017 21:28 3,9 C 3,9 C 2,2 C 98 % 15 lf 1012,0 hPa 0,0 l/m 0 min 0 min 5 W/m 18,8 km/h (3 Bft) 95,74 %
30.01.2017 21:30 3,8 C 3,9 C 2,2 C 98 % 15 lf 1012,0 hPa 0,0 l/m 0 min 0 min 5 W/m 18,8 km/h (3 Bft) 100,00 %
30.01.2017 21:32 3,8 C 3,9 C 2,2 C 98 % 15 lf 1012,0 hPa 0,0 l/m 0 min 0 min 5 W/m 14,6 km/h (3 Bft) 100,00 %
30.01.2017 21:34 3,8 C 3,9 C 2,2 C 98 % 15 lf 1012,1 hPa 0,0 l/m 0 min 0 min 5 W/m 18,8 km/h (3 Bft) 95,74 %
30.01.2017 21:36 3,8 C 3,9 C 2,2 C 98 % 15 lf 1012,2 hPa 0,0 l/m 0 min 0 min 5 W/m 18,8 km/h (3 Bft) 100,00 %
30.01.2017 21:38 3,8 C 3,9 C 2,2 C 98 % 15 lf 1012,2 hPa 0,0 l/m 0 min 2 min 5 W/m 20,9 km/h (4 Bft) 100,00 %
30.01.2017 21:40 3,8 C 3,9 C 2,2 C 98 % 15 lf 1012,2 hPa 0,0 l/m 0 min 0 min 5 W/m 18,8 km/h (3 Bft) 97,87 %
30.01.2017 21:42 3,7 C 3,9 C 2,2 C 98 % 15 lf 1012,2 hPa 0,0 l/m 0 min 0 min 5 W/m 18,8 km/h (3 Bft) 97,87 %
30.01.2017 21:44 3,7 C 3,9 C 2,2 C 98 % 15 lf 1012,2 hPa 0,0 l/m 0 min 0 min 5 W/m 12,6 km/h (3 Bft) 97,87 %
30.01.2017 21:46 3,7 C 3,9 C 2,2 C 98 % 15 lf 1012,2 hPa 0,0 l/m 0 min 0 min 5 W/m 20,9 km/h (4 Bft) 100,00 %
30.01.2017 21:48 3,7 C 3,9 C 2,2 C 98 % 15 lf 1012,2 hPa 0,0 l/m 0 min 0 min 5 W/m 14,6 km/h (3 Bft) 100,00 %
30.01.2017 21:50 3,7 C 3,3 C 2,2 C 98 % 15 lf 1012,2 hPa 0,0 l/m 0 min 0 min 5 W/m 14,6 km/h (3 Bft) 97,87 %
30.01.2017 21:52 3,7 C 3,3 C 2,2 C 98 % 15 lf 1012,3 hPa 0,0 l/m 0 min 0 min 5 W/m 12,6 km/h (3 Bft) 100,00 %
30.01.2017 21:54 3,6 C 3,3 C 2,2 C 98 % 15 lf 1012,3 hPa 0,0 l/m 0 min 0 min 5 W/m 12,6 km/h (3 Bft) 95,74 %
30.01.2017 21:56 3,6 C 3,3 C 2,2 C 98 % 15 lf 1012,3 hPa 0,0 l/m 0 min 0 min 5 W/m 14,6 km/h (3 Bft) 100,00 %
30.01.2017 21:58 3,6 C 3,3 C 2,2 C 98 % 15 lf 1012,3 hPa 0,0 l/m 0 min 0 min 5 W/m 8,4 km/h (2 Bft) 97,83 %
30.01.2017 22:00 3,6 C 3,3 C 2,2 C 98 % 15 lf 1012,3 hPa 0,0 l/m 0 min 0 min 5 W/m 16,7 km/h (3 Bft) 95,74 %
30.01.2017 22:02 3,6 C 3,3 C 2,2 C 98 % 15 lf 1012,3 hPa 0,0 l/m 0 min 0 min 5 W/m 12,6 km/h (3 Bft) 93,62 %
30.01.2017 22:04 3,6 C 3,3 C 2,2 C 98 % 15 lf 1012,3 hPa 0,0 l/m 0 min 0 min 5 W/m 8,4 km/h (2 Bft) 97,87 %
30.01.2017 22:06 3,6 C 3,3 C 2,2 C 98 % 15 lf 1012,3 hPa 0,0 l/m 0 min 0 min 5 W/m 16,7 km/h (3 Bft) 96,55 %
30.01.2017 22:08 3,5 C 3,3 C 2,2 C 98 % 15 lf 1012,3 hPa 0,0 l/m 0 min 0 min 5 W/m 12,6 km/h (3 Bft) 91,49 %
30.01.2017 22:10 3,5 C 3,3 C 2,2 C 98 % 15 lf 1012,3 hPa 0,0 l/m 0 min 0 min 5 W/m 14,6 km/h (3 Bft) 95,74 %
30.01.2017 22:12 3,5 C 3,3 C 2,2 C 98 % 15 lf 1012,3 hPa 0,0 l/m 0 min 0 min 5 W/m 14,6 km/h (3 Bft) 97,87 %
30.01.2017 22:14 3,5 C 3,3 C 2,2 C 98 % 15 lf 1012,3 hPa 0,0 l/m 0 min 0 min 5 W/m 14,6 km/h (3 Bft) 95,74 %
30.01.2017 22:16 3,4 C 3,3 C 2,2 C 98 % 15 lf 1012,3 hPa 0,0 l/m 0 min 0 min 5 W/m 12,6 km/h (3 Bft) 93,62 %
30.01.2017 22:18 3,4 C 3,3 C 2,2 C 98 % 15 lf 1012,4 hPa 0,0 l/m 0 min 0 min 5 W/m 10,5 km/h (2 Bft) 91,30 %
30.01.2017 22:20 3,4 C 3,3 C 2,2 C 98 % 15 lf 1012,3 hPa 0,0 l/m 0 min 0 min 5 W/m 8,4 km/h (2 Bft) 95,74 %
30.01.2017 22:22 3,4 C 3,3 C 2,2 C 98 % 15 lf 1012,4 hPa 0,0 l/m 0 min 0 min 5 W/m 14,6 km/h (3 Bft) 93,62 %
30.01.2017 22:24 3,4 C 3,3 C 2,2 C 98 % 15 lf 1012,4 hPa 0,0 l/m 0 min 0 min 5 W/m 10,5 km/h (2 Bft) 91,49 %
30.01.2017 22:26 3,4 C 3,3 C 2,2 C 98 % 15 lf 1012,4 hPa 0,0 l/m 0 min 0 min 5 W/m 10,5 km/h (2 Bft) 95,74 %
30.01.2017 22:28 3,4 C 3,3 C 1,7 C 98 % 15 lf 1012,4 hPa 0,0 l/m 0 min 0 min 5 W/m 16,7 km/h (3 Bft) 97,83 %
30.01.2017 22:30 3,3 C 3,3 C 1,7 C 98 % 15 lf 1012,4 hPa 0,0 l/m 0 min 0 min 5 W/m 14,6 km/h (3 Bft) 95,74 %
30.01.2017 22:32 3,3 C 3,3 C 1,7 C 98 % 15 lf 1012,4 hPa 0,0 l/m 0 min 0 min 5 W/m 20,9 km/h (4 Bft) 95,74 %
30.01.2017 22:34 3,3 C 3,3 C 1,7 C 98 % 15 lf 1012,4 hPa 0,0 l/m 0 min 0 min 5 W/m 18,8 km/h (3 Bft) 93,62 %
30.01.2017 22:36 3,3 C 3,3 C 1,7 C 98 % 15 lf 1012,5 hPa 0,0 l/m 0 min 0 min 5 W/m 14,6 km/h (3 Bft) 97,14 %
30.01.2017 22:38 3,3 C 3,3 C 1,7 C 98 % 15 lf 1012,5 hPa 0,0 l/m 0 min 0 min 5 W/m 12,6 km/h (3 Bft) 93,62 %
30.01.2017 22:40 3,2 C 3,3 C 1,7 C 98 % 15 lf 1012,5 hPa 0,0 l/m 0 min 0 min 5 W/m 20,9 km/h (4 Bft) 95,74 %
30.01.2017 22:42 3,2 C 3,3 C 1,7 C 98 % 15 lf 1012,5 hPa 0,0 l/m 0 min 0 min 5 W/m 12,6 km/h (3 Bft) 91,49 %
30.01.2017 22:44 3,2 C 3,3 C 1,7 C 98 % 15 lf 1012,5 hPa 0,0 l/m 0 min 0 min 5 W/m 12,6 km/h (3 Bft) 91,30 %
30.01.2017 22:46 3,2 C 3,3 C 1,7 C 98 % 15 lf 1012,5 hPa 0,0 l/m 0 min 0 min 5 W/m 12,6 km/h (3 Bft) 91,49 %
30.01.2017 22:48 3,2 C 3,3 C 1,7 C 98 % 15 lf 1012,5 hPa 0,0 l/m 0 min 0 min 5 W/m 14,6 km/h (3 Bft) 93,62 %
30.01.2017 22:50 3,2 C 3,3 C 1,7 C 98 % 15 lf 1012,6 hPa 0,0 l/m 0 min 0 min 5 W/m 12,6 km/h (3 Bft) 93,62 %
30.01.2017 22:52 3,2 C 3,3 C 1,7 C 98 % 15 lf 1012,5 hPa 0,0 l/m 0 min 0 min 5 W/m 14,6 km/h (3 Bft) 91,49 %
30.01.2017 22:54 3,2 C 3,3 C 1,7 C 98 % 15 lf 1012,6 hPa 0,0 l/m 0 min 0 min 5 W/m 12,6 km/h (3 Bft) 93,62 %
30.01.2017 22:56 3,2 C 3,3 C 1,7 C 98 % 15 lf 1012,6 hPa 0,0 l/m 0 min 0 min 5 W/m 12,6 km/h (3 Bft) 97,83 %
30.01.2017 22:58 3,2 C 3,3 C 1,7 C 98 % 15 lf 1012,6 hPa 0,0 l/m 0 min 0 min 5 W/m 16,7 km/h (3 Bft) 95,74 %
30.01.2017 23:00 3,1 C 3,3 C 1,7 C 98 % 15 lf 1012,6 hPa 0,0 l/m 0 min 0 min 5 W/m 16,7 km/h (3 Bft) 93,62 %
30.01.2017 23:02 3,1 C 3,3 C 1,7 C 98 % 15 lf 1012,6 hPa 0,0 l/m 0 min 0 min 5 W/m 16,7 km/h (3 Bft) 95,74 %
30.01.2017 23:04 3,1 C 3,3 C 1,7 C 98 % 15 lf 1012,6 hPa 0,0 l/m 0 min 0 min 5 W/m 16,7 km/h (3 Bft) 95,74 %
30.01.2017 23:06 3,1 C 3,3 C 1,7 C 98 % 15 lf 1012,5 hPa 0,0 l/m 0 min 0 min 5 W/m 12,6 km/h (3 Bft) 94,55 %
30.01.2017 23:08 3,1 C 3,3 C 1,7 C 98 % 15 lf 1012,6 hPa 0,0 l/m 0 min 0 min 5 W/m 10,5 km/h (2 Bft) 95,74 %
30.01.2017 23:10 3,1 C 2,8 C 1,7 C 98 % 15 lf 1012,6 hPa 0,0 l/m 0 min 0 min 5 W/m 16,7 km/h (3 Bft) 95,65 %
30.01.2017 23:12 3,1 C 2,8 C 1,7 C 98 % 15 lf 1012,6 hPa 0,0 l/m 0 min 0 min 5 W/m 12,6 km/h (3 Bft) 91,49 %
30.01.2017 23:14 3,1 C 2,8 C 1,7 C 98 % 15 lf 1012,6 hPa 0,0 l/m 0 min 0 min 5 W/m 14,6 km/h (3 Bft) 93,62 %
30.01.2017 23:16 3,1 C 2,8 C 1,7 C 98 % 15 lf 1012,6 hPa 0,0 l/m 0 min 0 min 5 W/m 14,6 km/h (3 Bft) 91,49 %
30.01.2017 23:18 3,0 C 2,8 C 1,7 C 98 % 15 lf 1012,6 hPa 0,0 l/m 0 min 0 min 5 W/m 20,9 km/h (4 Bft) 93,62 %
30.01.2017 23:20 3,0 C 2,8 C 1,7 C 98 % 15 lf 1012,7 hPa 0,0 l/m 0 min 0 min 5 W/m 12,6 km/h (3 Bft) 95,74 %
30.01.2017 23:22 3,0 C 2,8 C 1,7 C 98 % 15 lf 1012,6 hPa 0,0 l/m 0 min 0 min 5 W/m 14,6 km/h (3 Bft) 97,83 %
30.01.2017 23:24 3,0 C 2,8 C 1,7 C 98 % 15 lf 1012,7 hPa 0,0 l/m 0 min 0 min 5 W/m 18,8 km/h (3 Bft) 95,74 %
30.01.2017 23:26 2,9 C 2,8 C 1,7 C 98 % 15 lf 1012,7 hPa 0,0 l/m 0 min 0 min 5 W/m 18,8 km/h (3 Bft) 95,74 %
30.01.2017 23:28 2,9 C 2,8 C 1,7 C 98 % 15 lf 1012,7 hPa 0,0 l/m 0 min 0 min 5 W/m 18,8 km/h (3 Bft) 95,74 %
30.01.2017 23:30 2,9 C 2,8 C 1,7 C 98 % 15 lf 1012,7 hPa 0,0 l/m 0 min 0 min 5 W/m 14,6 km/h (3 Bft) 93,62 %
30.01.2017 23:32 2,9 C 2,8 C 1,7 C 98 % 15 lf 1012,7 hPa 0,0 l/m 0 min 0 min 5 W/m 10,5 km/h (2 Bft) 95,74 %
30.01.2017 23:34 2,9 C 2,8 C 1,7 C 98 % 15 lf 1012,7 hPa 0,0 l/m 0 min 0 min 5 W/m 12,6 km/h (3 Bft) 93,62 %
30.01.2017 23:36 2,9 C 2,8 C 1,7 C 98 % 15 lf 1012,7 hPa 0,0 l/m 0 min 0 min 5 W/m 12,6 km/h (3 Bft) 96,00 %
30.01.2017 23:38 2,9 C 2,8 C 1,7 C 98 % 15 lf 1012,8 hPa 0,0 l/m 0 min 0 min 5 W/m 12,6 km/h (3 Bft) 93,48 %
30.01.2017 23:40 2,9 C 2,8 C 1,7 C 98 % 15 lf 1012,8 hPa 0,0 l/m 0 min 0 min 5 W/m 16,7 km/h (3 Bft) 95,74 %
30.01.2017 23:42 2,9 C 2,8 C 1,7 C 98 % 15 lf 1012,8 hPa 0,0 l/m 0 min 0 min 5 W/m 16,7 km/h (3 Bft) 93,62 %
30.01.2017 23:44 2,8 C 2,8 C 1,7 C 98 % 15 lf 1012,8 hPa 0,0 l/m 0 min 0 min 5 W/m 23,0 km/h (4 Bft) 93,62 %
30.01.2017 23:46 2,8 C 2,8 C 1,7 C 98 % 15 lf 1012,8 hPa 0,0 l/m 0 min 0 min 5 W/m 16,7 km/h (3 Bft) 93,62 %
30.01.2017 23:48 2,8 C 2,8 C 1,7 C 98 % 15 lf 1012,8 hPa 0,0 l/m 0 min 0 min 5 W/m 10,5 km/h (2 Bft) 100,00 %
30.01.2017 23:50 2,8 C 2,8 C 1,7 C 98 % 15 lf 1012,9 hPa 0,0 l/m 0 min 0 min 5 W/m 14,6 km/h (3 Bft) 100,00 %
30.01.2017 23:52 2,8 C 2,8 C 1,7 C 98 % 15 lf 1013,0 hPa 0,0 l/m 0 min 0 min 5 W/m 16,7 km/h (3 Bft) 100,00 %
30.01.2017 23:54 2,8 C 2,8 C 1,7 C 98 % 15 lf 1012,9 hPa 0,0 l/m 0 min 0 min 5 W/m 16,7 km/h (3 Bft) 95,74 %
30.01.2017 23:56 2,8 C 2,8 C 1,7 C 98 % 15 lf 1012,9 hPa 0,0 l/m 0 min 0 min 5 W/m 18,8 km/h (3 Bft) 97,87 %
30.01.2017 23:58 2,7 C 2,8 C 1,7 C 98 % 15 lf 1012,9 hPa 0,0 l/m 0 min 0 min 5 W/m 12,6 km/h (3 Bft) 97,87 %
_ Min-Zeit 00:00 00:50 00:52 00:00 00:00 14:20 - - - - 00:02 00:02
Minimum _ 2,6 C 2,2 C 0,6 C 91 % 0 lf 1007,7 hPa - - - - 6,3 km/h (2 Bft) 5,00 %
_ Max-Zeit 14:36 12:10 11:00 09:34 01:14 00:06 01:04 00:00 00:26 11:54 12:38 00:18
Maximum _ 7,0 C 7,2 C 5,6 C 99 % 15 lf 1015,9 hPa 0,2 l/m 0 min 2 min 78 W/m 37,7 km/h
W (5 Bft)
100,00 %
Durchschnitt _ 4,8 C 4,9 C 3,4 C 97 % 14 lf 1010,4 hPa #6,8 l/m #0 min. #10:42 h 18 W/m 16,6 km/h (3 Bft) 95,85 %
© 2017 W. Hausmann